| time (UTC) | temp F | wind direction | speed MPH | gust MPH | rain 1hr in | rain 24hr in | rain mn in | humidity % | barometer mb |
| 20260505181804 | 52 | 75 | 7.0 | 24.0 | 0.00 | 0.12 | 0.08 | 68 | 1012.3 |
| 20260505181604 | 51 | 74 | 8.0 | 24.0 | 0.00 | 0.12 | 0.08 | 67 | 1012.2 |
| 20260505181404 | 51 | 70 | 8.0 | 24.0 | 0.00 | 0.12 | 0.08 | 66 | 1012.3 |
| 20260505181305 | 51 | 70 | 9.0 | 24.0 | 0.00 | 0.12 | 0.08 | 66 | 1012.3 |
| 20260505181204 | 51 | 70 | 9.0 | 24.0 | 0.00 | 0.12 | 0.08 | 66 | 1012.3 |
| 20260505181004 | 51 | 66 | 7.0 | 24.0 | 0.00 | 0.12 | 0.08 | 65 | 1012.2 |
| 20260505180905 | 51 | 63 | 7.0 | 23.0 | 0.00 | 0.12 | 0.08 | 66 | 1012.2 |
| 20260505180704 | 51 | 62 | 7.0 | 23.0 | 0.00 | 0.12 | 0.08 | 67 | 1012.2 |
| 20260505180405 | 51 | 60 | 8.0 | 23.0 | 0.00 | 0.12 | 0.08 | 66 | 1012.2 |
| 20260505180305 | 51 | 54 | 7.0 | 21.0 | 0.00 | 0.12 | 0.08 | 67 | 1012.3 |
| 20260505180205 | 51 | 53 | 7.0 | 21.0 | 0.00 | 0.12 | 0.08 | 68 | 1012.2 |
| 20260505180005 | 51 | 58 | 7.0 | 21.0 | 0.00 | 0.12 | 0.08 | 67 | 1012.5 |
| 20260505175905 | 51 | 59 | 7.0 | 21.0 | 0.00 | 0.12 | 0.08 | 67 | 1012.4 |
| 20260505175804 | 51 | 63 | 6.0 | 21.0 | 0.00 | 0.12 | 0.08 | 67 | 1012.5 |
| 20260505175705 | 51 | 59 | 6.0 | 21.0 | 0.00 | 0.12 | 0.08 | 66 | 1012.5 |
| 20260505175605 | 52 | 62 | 5.0 | 21.0 | 0.00 | 0.12 | 0.08 | 66 | 1012.7 |
| 20260505175504 | 52 | 66 | 5.0 | 21.0 | 0.00 | 0.12 | 0.08 | 66 | 1012.5 |
| 20260505175404 | 52 | 65 | 4.0 | 21.0 | 0.00 | 0.12 | 0.08 | 66 | 1012.6 |
| 20260505175204 | 52 | 76 | 4.0 | 19.0 | 0.00 | 0.12 | 0.08 | 68 | 1012.6 |
| 20260505175104 | 52 | 79 | 5.0 | 19.0 | 0.00 | 0.12 | 0.08 | 69 | 1012.6 |
| 20260505175004 | 52 | 79 | 5.0 | 19.0 | 0.00 | 0.12 | 0.08 | 70 | 1012.5 |
| 20260505174904 | 52 | 78 | 5.0 | 19.0 | 0.00 | 0.12 | 0.08 | 71 | 1012.6 |
| 20260505174804 | 52 | 73 | 6.0 | 19.0 | 0.00 | 0.12 | 0.08 | 71 | 1012.6 |
| 20260505174704 | 52 | 73 | 6.0 | 19.0 | 0.01 | 0.12 | 0.08 | 70 | 1012.5 |
| 20260505174604 | 52 | 71 | 6.0 | 19.0 | 0.01 | 0.12 | 0.08 | 70 | 1012.6 |
| 20260505174504 | 52 | 70 | 7.0 | 19.0 | 0.01 | 0.12 | 0.08 | 70 | 1012.6 |
| 20260505174404 | 52 | 69 | 7.0 | 20.0 | 0.01 | 0.12 | 0.08 | 69 | 1012.6 |
| 20260505174304 | 52 | 69 | 7.0 | 20.0 | 0.01 | 0.12 | 0.08 | 68 | 1012.5 |
| 20260505174104 | 52 | 67 | 7.0 | 20.0 | 0.01 | 0.12 | 0.08 | 68 | 1012.5 |
| 20260505174004 | 52 | 63 | 7.0 | 20.0 | 0.01 | 0.12 | 0.08 | 69 | 1012.5 |
| 20260505173804 | 52 | 60 | 7.0 | 20.0 | 0.01 | 0.12 | 0.08 | 70 | 1012.4 |
| 20260505173704 | 52 | 62 | 7.0 | 20.0 | 0.01 | 0.12 | 0.08 | 68 | 1012.4 |
| 20260505173604 | 51 | 63 | 7.0 | 20.0 | 0.01 | 0.12 | 0.08 | 68 | 1012.3 |
| 20260505173404 | 51 | 64 | 6.0 | 20.0 | 0.01 | 0.12 | 0.08 | 69 | 1012.3 |
| 20260505173304 | 51 | 63 | 6.0 | 14.0 | 0.01 | 0.12 | 0.08 | 70 | 1012.3 |
| 20260505173104 | 51 | 65 | 6.0 | 14.0 | 0.01 | 0.12 | 0.08 | 69 | 1012.2 |
| 20260505173004 | 51 | 65 | 6.0 | 14.0 | 0.01 | 0.12 | 0.08 | 70 | 1012.2 |
| 20260505172804 | 51 | 73 | 6.0 | 13.0 | 0.01 | 0.12 | 0.08 | 70 | 1012.3 |
| 20260505172704 | 51 | 72 | 6.0 | 13.0 | 0.01 | 0.12 | 0.08 | 71 | 1012.4 |
| 20260505172604 | 51 | 72 | 6.0 | 17.0 | 0.01 | 0.12 | 0.08 | 71 | 1012.5 |
| 20260505172504 | 51 | 72 | 6.0 | 17.0 | 0.01 | 0.12 | 0.08 | 70 | 1012.5 |
| 20260505172404 | 51 | 74 | 6.0 | 17.0 | 0.01 | 0.12 | 0.08 | 71 | 1012.6 |
| 20260505172306 | 51 | 72 | 6.0 | 17.0 | 0.01 | 0.12 | 0.08 | 71 | 1012.7 |
| 20260505172204 | 50 | 72 | 7.0 | 17.0 | 0.01 | 0.12 | 0.08 | 71 | 1012.6 |
| 20260505172104 | 50 | 72 | 7.0 | 19.0 | 0.01 | 0.12 | 0.08 | 71 | 1012.6 |
| 20260505171904 | 50 | 74 | 7.0 | 19.0 | 0.01 | 0.12 | 0.08 | 71 | 1012.6 |
| 20260505171804 | 50 | 71 | 8.0 | 19.0 | 0.01 | 0.12 | 0.08 | 71 | 1012.6 |
| 20260505171705 | 50 | 67 | 8.0 | 19.0 | 0.01 | 0.12 | 0.08 | 71 | 1012.5 |
| 20260505171604 | 50 | 64 | 7.0 | 19.0 | 0.01 | 0.12 | 0.08 | 70 | 1012.5 |
| 20260505171404 | 50 | 62 | 7.0 | 19.0 | 0.01 | 0.12 | 0.08 | 71 | 1012.4 |
| 20260505171305 | 50 | 64 | 7.0 | 19.0 | 0.01 | 0.12 | 0.08 | 70 | 1012.4 |
| 20260505171204 | 50 | 64 | 6.0 | 19.0 | 0.01 | 0.12 | 0.08 | 69 | 1012.4 |
| 20260505171104 | 51 | 59 | 6.0 | 18.0 | 0.01 | 0.12 | 0.08 | 70 | 1012.5 |
| 20260505171004 | 51 | 60 | 6.0 | 18.0 | 0.01 | 0.12 | 0.08 | 69 | 1012.5 |
| 20260505170904 | 51 | 60 | 6.0 | 18.0 | 0.01 | 0.12 | 0.08 | 69 | 1012.5 |
| 20260505170804 | 51 | 63 | 6.0 | 18.0 | 0.01 | 0.12 | 0.08 | 69 | 1012.5 |
| 20260505170704 | 51 | 68 | 5.0 | 18.0 | 0.01 | 0.12 | 0.08 | 70 | 1012.5 |
| 20260505170604 | 51 | 70 | 5.0 | 16.0 | 0.01 | 0.12 | 0.08 | 72 | 1012.5 |
| 20260505170504 | 50 | 72 | 5.0 | 16.0 | 0.01 | 0.12 | 0.08 | 71 | 1012.5 |
| 20260505170304 | 50 | 67 | 6.0 | 16.0 | 0.01 | 0.12 | 0.08 | 70 | 1012.5 |
| 20260505170204 | 50 | 68 | 6.0 | 16.0 | 0.01 | 0.12 | 0.08 | 69 | 1012.5 |
| 20260505170104 | 50 | 70 | 6.0 | 16.0 | 0.01 | 0.12 | 0.08 | 71 | 1012.5 |
| 20260505170004 | 50 | 70 | 6.0 | 15.0 | 0.01 | 0.12 | 0.08 | 70 | 1012.5 |
| 20260505165905 | 50 | 69 | 6.0 | 15.0 | 0.01 | 0.12 | 0.08 | 71 | 1012.5 |
| 20260505165805 | 50 | 68 | 6.0 | 15.0 | 0.01 | 0.12 | 0.08 | 71 | 1012.6 |
| 20260505165705 | 50 | 67 | 7.0 | 25.0 | 0.01 | 0.12 | 0.08 | 71 | 1012.6 |
| 20260505165605 | 50 | 66 | 7.0 | 26.0 | 0.01 | 0.12 | 0.08 | 70 | 1012.4 |
| 20260505165505 | 50 | 63 | 7.0 | 26.0 | 0.01 | 0.12 | 0.08 | 71 | 1012.5 |
| 20260505165405 | 50 | 66 | 6.0 | 26.0 | 0.01 | 0.12 | 0.08 | 70 | 1012.4 |
| 20260505165306 | 50 | 65 | 6.0 | 26.0 | 0.01 | 0.12 | 0.08 | 71 | 1012.5 |
| 20260505165204 | 50 | 65 | 6.0 | 26.0 | 0.01 | 0.12 | 0.08 | 71 | 1012.5 |
| 20260505165104 | 50 | 67 | 7.0 | 26.0 | 0.01 | 0.12 | 0.08 | 71 | 1012.3 |
| 20260505165005 | 50 | 65 | 6.0 | 26.0 | 0.01 | 0.12 | 0.08 | 70 | 1012.3 |
| 20260505164904 | 51 | 63 | 6.0 | 26.0 | 0.01 | 0.12 | 0.08 | 69 | 1012.4 |
| 20260505164804 | 51 | 63 | 5.0 | 26.0 | 0.01 | 0.12 | 0.08 | 70 | 1012.3 |
| 20260505164704 | 51 | 64 | 5.0 | 26.0 | 0.00 | 0.11 | 0.07 | 71 | 1012.4 |
| 20260505164604 | 51 | 67 | 5.0 | 20.0 | 0.00 | 0.11 | 0.07 | 71 | 1012.4 |
| 20260505164504 | 51 | 69 | 5.0 | 20.0 | 0.00 | 0.11 | 0.07 | 71 | 1012.5 |
| 20260505164404 | 51 | 69 | 5.0 | 20.0 | 0.00 | 0.11 | 0.07 | 70 | 1012.5 |
| 20260505164304 | 51 | 71 | 5.0 | 20.0 | 0.00 | 0.11 | 0.07 | 69 | 1012.5 |
| 20260505164204 | 51 | 70 | 6.0 | 20.0 | 0.00 | 0.11 | 0.07 | 68 | 1012.5 |
| 20260505164104 | 52 | 65 | 5.0 | 20.0 | 0.00 | 0.11 | 0.07 | 68 | 1012.6 |
| 20260505164004 | 52 | 68 | 5.0 | 19.0 | 0.00 | 0.11 | 0.07 | 68 | 1012.5 |
| 20260505163904 | 52 | 69 | 5.0 | 19.0 | 0.00 | 0.11 | 0.07 | 68 | 1012.5 |
| 20260505163804 | 52 | 68 | 5.0 | 19.0 | 0.00 | 0.11 | 0.07 | 68 | 1012.5 |
| 20260505163704 | 52 | 67 | 6.0 | 19.0 | 0.00 | 0.11 | 0.07 | 67 | 1012.4 |
| 20260505163404 | 52 | 70 | 6.0 | 19.0 | 0.00 | 0.11 | 0.07 | 65 | 1012.3 |
| 20260505163204 | 52 | 63 | 7.0 | 18.0 | 0.00 | 0.11 | 0.07 | 64 | 1012.4 |
| 20260505163004 | 52 | 58 | 7.0 | 17.0 | 0.00 | 0.11 | 0.07 | 66 | 1012.5 |
| 20260505162904 | 52 | 55 | 8.0 | 17.0 | 0.00 | 0.11 | 0.07 | 65 | 1012.5 |
| 20260505162804 | 52 | 52 | 8.0 | 17.0 | 0.00 | 0.11 | 0.07 | 65 | 1012.5 |
| 20260505162704 | 52 | 48 | 7.0 | 17.0 | 0.00 | 0.11 | 0.07 | 65 | 1012.4 |
| 20260505162604 | 52 | 45 | 7.0 | 15.0 | 0.00 | 0.11 | 0.07 | 65 | 1012.5 |
| 20260505162504 | 52 | 41 | 6.0 | 20.0 | 0.00 | 0.11 | 0.07 | 65 | 1012.5 |
| 20260505162405 | 52 | 37 | 6.0 | 20.0 | 0.00 | 0.11 | 0.07 | 64 | 1012.5 |
| 20260505162307 | 52 | 40 | 6.0 | 20.0 | 0.00 | 0.11 | 0.07 | 64 | 1012.6 |
| 20260505162205 | 52 | 37 | 5.0 | 20.0 | 0.00 | 0.11 | 0.07 | 64 | 1012.5 |
| 20260505162104 | 52 | 39 | 5.0 | 20.0 | 0.00 | 0.11 | 0.07 | 64 | 1012.5 |
| 20260505162004 | 52 | 41 | 4.0 | 20.0 | 0.00 | 0.11 | 0.07 | 64 | 1012.5 |
| 20260505161904 | 52 | 46 | 4.0 | 20.0 | 0.00 | 0.11 | 0.07 | 64 | 1012.6 |
| 20260505161604 | 52 | 64 | 5.0 | 20.0 | 0.00 | 0.11 | 0.07 | 64 | 1012.6 |
| 20260505161504 | 52 | 67 | 6.0 | 20.0 | 0.00 | 0.11 | 0.07 | 64 | 1012.6 |
| 20260505161205 | 52 | 72 | 8.0 | 20.0 | 0.00 | 0.11 | 0.07 | 62 | 1012.6 |
| 20260505161104 | 52 | 74 | 9.0 | 23.0 | 0.00 | 0.11 | 0.07 | 62 | 1012.5 |
| 20260505161004 | 52 | 75 | 9.0 | 23.0 | 0.00 | 0.11 | 0.07 | 62 | 1012.5 |
| 20260505160904 | 52 | 75 | 10.0 | 23.0 | 0.00 | 0.11 | 0.07 | 61 | 1012.5 |
| 20260505160804 | 52 | 75 | 9.0 | 23.0 | 0.00 | 0.11 | 0.07 | 61 | 1012.5 |
| 20260505160705 | 52 | 72 | 10.0 | 23.0 | 0.00 | 0.11 | 0.07 | 61 | 1012.3 |
| 20260505160604 | 52 | 72 | 10.0 | 23.0 | 0.00 | 0.11 | 0.07 | 61 | 1012.4 |
| 20260505160505 | 52 | 71 | 9.0 | 23.0 | 0.00 | 0.11 | 0.07 | 61 | 1012.4 |
| 20260505160404 | 52 | 70 | 10.0 | 23.0 | 0.00 | 0.11 | 0.07 | 60 | 1012.3 |
| 20260505160304 | 52 | 70 | 10.0 | 23.0 | 0.00 | 0.11 | 0.07 | 60 | 1012.4 |
| 20260505160204 | 52 | 69 | 9.0 | 23.0 | 0.00 | 0.11 | 0.07 | 59 | 1012.2 |
| 20260505160104 | 52 | 67 | 9.0 | 21.0 | 0.00 | 0.11 | 0.07 | 59 | 1012.3 |
| 20260505153304 | 53 | 79 | 8.0 | 25.0 | 0.00 | 0.11 | 0.07 | 59 | 1011.8 |
| 20260505153204 | 53 | 81 | 7.0 | 25.0 | 0.00 | 0.11 | 0.07 | 59 | 1011.6 |
| 20260505153104 | 53 | 79 | 8.0 | 25.0 | 0.00 | 0.11 | 0.07 | 60 | 1011.7 |
| 20260505153004 | 53 | 78 | 8.0 | 25.0 | 0.00 | 0.11 | 0.07 | 60 | 1011.7 |
| 20260505152904 | 53 | 78 | 9.0 | 25.0 | 0.00 | 0.11 | 0.07 | 59 | 1011.7 |
| 20260505152804 | 53 | 78 | 9.0 | 28.0 | 0.00 | 0.11 | 0.07 | 60 | 1011.7 |
| 20260505152605 | 53 | 77 | 10.0 | 28.0 | 0.00 | 0.11 | 0.07 | 59 | 1011.4 |
| 20260505152505 | 53 | 75 | 9.0 | 28.0 | 0.00 | 0.11 | 0.07 | 60 | 1011.4 |
| 20260505152405 | 53 | 76 | 9.0 | 28.0 | 0.00 | 0.11 | 0.07 | 60 | 1011.3 |
| 20260505152305 | 53 | 76 | 9.0 | 28.0 | 0.00 | 0.11 | 0.07 | 60 | 1011.4 |
| 20260505152205 | 53 | 75 | 9.0 | 28.0 | 0.00 | 0.11 | 0.07 | 60 | 1011.2 |
| 20260505152005 | 53 | 74 | 8.0 | 28.0 | 0.00 | 0.11 | 0.07 | 59 | 1011.2 |
| 20260505151905 | 53 | 76 | 7.0 | 28.0 | 0.00 | 0.11 | 0.07 | 59 | 1011.3 |
| 20260505151805 | 53 | 74 | 7.0 | 27.0 | 0.00 | 0.11 | 0.07 | 59 | 1011.2 |
| 20260505151704 | 53 | 72 | 6.0 | 20.0 | 0.00 | 0.11 | 0.07 | 60 | 1011.3 |
| 20260505151604 | 53 | 74 | 6.0 | 16.0 | 0.00 | 0.11 | 0.07 | 60 | 1011.3 |
| 20260505151505 | 53 | 78 | 6.0 | 22.0 | 0.00 | 0.11 | 0.07 | 61 | 1011.3 |
| 20260505151404 | 53 | 76 | 6.0 | 25.0 | 0.00 | 0.11 | 0.07 | 60 | 1011.3 |
| 20260505151304 | 53 | 77 | 6.0 | 25.0 | 0.00 | 0.11 | 0.07 | 61 | 1011.3 |
| 20260505151204 | 53 | 79 | 6.0 | 25.0 | 0.00 | 0.11 | 0.07 | 61 | 1011.3 |
| 20260505151104 | 53 | 80 | 6.0 | 25.0 | 0.00 | 0.11 | 0.07 | 61 | 1011.3 |
| 20260505151004 | 53 | 83 | 6.0 | 25.0 | 0.00 | 0.11 | 0.07 | 61 | 1011.3 |
| 20260505150904 | 53 | 81 | 7.0 | 25.0 | 0.00 | 0.11 | 0.07 | 61 | 1011.3 |
| 20260505150804 | 53 | 82 | 7.0 | 25.0 | 0.00 | 0.11 | 0.07 | 60 | 1011.3 |
| 20260505150604 | 53 | 80 | 8.0 | 25.0 | 0.00 | 0.11 | 0.07 | 60 | 1011.2 |
| 20260505150504 | 53 | 81 | 7.0 | 25.0 | 0.00 | 0.11 | 0.07 | 61 | 1011.2 |
| 20260505150404 | 53 | 81 | 8.0 | 19.0 | 0.00 | 0.11 | 0.07 | 61 | 1011.2 |
| 20260505150304 | 53 | 82 | 8.0 | 19.0 | 0.00 | 0.11 | 0.07 | 61 | 1011.2 |
| 20260505150204 | 53 | 80 | 9.0 | 20.0 | 0.00 | 0.11 | 0.07 | 61 | 1011.2 |
| 20260505150104 | 53 | 81 | 9.0 | 22.0 | 0.00 | 0.11 | 0.07 | 61 | 1011.3 |
| 20260505140604 | 53 | 79 | 6.0 | 18.0 | 0.00 | 0.11 | 0.07 | 60 | 1011.6 |
| 20260505140504 | 53 | 82 | 6.0 | 18.0 | 0.00 | 0.11 | 0.07 | 60 | 1011.6 |
| 20260505140304 | 53 | 78 | 6.0 | 24.0 | 0.00 | 0.11 | 0.07 | 60 | 1011.4 |
| 20260505140204 | 53 | 78 | 6.0 | 24.0 | 0.00 | 0.11 | 0.07 | 60 | 1011.4 |
| 20260505140104 | 53 | 74 | 6.0 | 24.0 | 0.00 | 0.11 | 0.07 | 60 | 1011.4 |
| 20260505130305 | 53 | 77 | 6.0 | 20.0 | 0.00 | 0.11 | 0.07 | 58 | 1010.3 |
| 20260505130205 | 53 | 77 | 6.0 | 20.0 | 0.00 | 0.11 | 0.07 | 58 | 1010.3 |
| 20260505130105 | 53 | 77 | 7.0 | 20.0 | 0.00 | 0.11 | 0.07 | 58 | 1010.3 |
| 20260505125005 | 53 | 80 | 9.0 | 21.0 | 0.00 | 0.11 | 0.07 | 56 | 1009.6 |
| 20260505124805 | 53 | 81 | 8.0 | 26.0 | 0.00 | 0.11 | 0.07 | 56 | 1009.7 |
| 20260505124705 | 53 | 81 | 8.0 | 26.0 | 0.00 | 0.11 | 0.07 | 56 | 1009.8 |
| 20260505124605 | 53 | 80 | 7.0 | 26.0 | 0.00 | 0.11 | 0.07 | 56 | 1009.8 |
| 20260505124505 | 53 | 78 | 7.0 | 26.0 | 0.00 | 0.11 | 0.07 | 56 | 1009.7 |
| 20260505124405 | 53 | 75 | 7.0 | 26.0 | 0.00 | 0.11 | 0.07 | 56 | 1009.7 |
| 20260505124305 | 54 | 76 | 6.0 | 26.0 | 0.00 | 0.11 | 0.07 | 56 | 1009.4 |
| 20260505124205 | 53 | 74 | 7.0 | 26.0 | 0.00 | 0.11 | 0.07 | 56 | 1009.5 |
| 20260505124105 | 53 | 75 | 7.0 | 26.0 | 0.00 | 0.11 | 0.07 | 56 | 1009.5 |
| 20260505124004 | 53 | 75 | 7.0 | 26.0 | 0.00 | 0.11 | 0.07 | 56 | 1009.4 |
| 20260505123904 | 53 | 75 | 7.0 | 26.0 | 0.00 | 0.11 | 0.07 | 56 | 1009.5 |
| 20260505123804 | 53 | 74 | 7.0 | 19.0 | 0.00 | 0.11 | 0.07 | 57 | 1009.4 |
| 20260505123704 | 53 | 72 | 7.0 | 19.0 | 0.00 | 0.11 | 0.07 | 56 | 1009.5 |
| 20260505123605 | 53 | 72 | 8.0 | 19.0 | 0.00 | 0.11 | 0.07 | 56 | 1009.4 |
| 20260505123505 | 53 | 72 | 8.0 | 19.0 | 0.00 | 0.11 | 0.07 | 56 | 1009.4 |
| 20260505123405 | 53 | 70 | 8.0 | 19.0 | 0.00 | 0.11 | 0.07 | 56 | 1009.4 |
| 20260505123305 | 53 | 69 | 8.0 | 19.0 | 0.00 | 0.11 | 0.07 | 56 | 1009.5 |
| 20260505123205 | 54 | 68 | 8.0 | 19.0 | 0.00 | 0.11 | 0.07 | 56 | 1009.5 |
| 20260505123105 | 54 | 65 | 8.0 | 19.0 | 0.00 | 0.11 | 0.07 | 56 | 1009.4 |
| 20260505123005 | 54 | 62 | 7.0 | 19.0 | 0.00 | 0.11 | 0.07 | 56 | 1009.5 |
| 20260505122805 | 54 | 57 | 6.0 | 19.0 | 0.00 | 0.11 | 0.07 | 56 | 1009.6 |
| 20260505122705 | 54 | 59 | 6.0 | 19.0 | 0.00 | 0.11 | 0.07 | 56 | 1009.6 |
| 20260505122605 | 54 | 60 | 6.0 | 19.0 | 0.00 | 0.11 | 0.07 | 56 | 1009.6 |
| 20260505122505 | 54 | 59 | 6.0 | 19.0 | 0.00 | 0.11 | 0.07 | 56 | 1009.6 |
| 20260505122405 | 54 | 60 | 5.0 | 18.0 | 0.00 | 0.11 | 0.07 | 56 | 1009.6 |
| 20260505122306 | 54 | 61 | 6.0 | 18.0 | 0.00 | 0.11 | 0.07 | 57 | 1009.5 |
| 20260505122205 | 54 | 59 | 6.0 | 21.0 | 0.00 | 0.11 | 0.07 | 57 | 1009.5 |
| 20260505122005 | 54 | 62 | 6.0 | 21.0 | 0.00 | 0.11 | 0.07 | 57 | 1009.6 |
| 20260505121905 | 54 | 62 | 6.0 | 21.0 | 0.00 | 0.11 | 0.07 | 57 | 1009.6 |
| 20260505121805 | 54 | 64 | 7.0 | 21.0 | 0.00 | 0.11 | 0.07 | 57 | 1009.7 |
| 20260505121704 | 54 | 63 | 6.0 | 21.0 | 0.00 | 0.11 | 0.07 | 57 | 1009.7 |
| 20260505121505 | 54 | 64 | 6.0 | 21.0 | 0.00 | 0.11 | 0.07 | 56 | 1009.6 |
| 20260505121405 | 54 | 64 | 6.0 | 21.0 | 0.00 | 0.11 | 0.07 | 56 | 1009.6 |
| 20260505121305 | 54 | 63 | 5.0 | 21.0 | 0.00 | 0.11 | 0.07 | 56 | 1009.5 |
| 20260505121205 | 54 | 69 | 5.0 | 19.0 | 0.00 | 0.11 | 0.07 | 56 | 1009.5 |
| 20260505121104 | 54 | 68 | 4.0 | 19.0 | 0.00 | 0.11 | 0.07 | 56 | 1009.5 |
| 20260505121004 | 54 | 64 | 4.0 | 19.0 | 0.00 | 0.11 | 0.07 | 57 | 1009.6 |
| 20260505120904 | 54 | 63 | 5.0 | 12.0 | 0.00 | 0.11 | 0.07 | 57 | 1009.5 |
| 20260505120804 | 54 | 59 | 5.0 | 16.0 | 0.00 | 0.11 | 0.07 | 57 | 1009.5 |
| 20260505120705 | 54 | 62 | 6.0 | 18.0 | 0.00 | 0.11 | 0.07 | 57 | 1009.5 |
| 20260505120605 | 54 | 64 | 6.0 | 18.0 | 0.00 | 0.11 | 0.07 | 57 | 1009.5 |
| 20260505120305 | 54 | 62 | 7.0 | 19.0 | 0.00 | 0.11 | 0.07 | 57 | 1009.4 |
| 20260505120205 | 54 | 60 | 6.0 | 19.0 | 0.00 | 0.11 | 0.07 | 56 | 1009.4 |
| 20260505120104 | 54 | 63 | 6.0 | 19.0 | 0.00 | 0.11 | 0.07 | 57 | 1009.4 |
| 20260505115904 | 54 | 66 | 6.0 | 19.0 | 0.00 | 0.11 | 0.07 | 56 | 1009.3 |
| 20260505115804 | 54 | 67 | 5.0 | 19.0 | 0.00 | 0.11 | 0.07 | 56 | 1009.3 |
| 20260505115704 | 54 | 65 | 5.0 | 19.0 | 0.00 | 0.11 | 0.07 | 57 | 1009.2 |
| 20260505115605 | 54 | 60 | 5.0 | 19.0 | 0.00 | 0.11 | 0.07 | 57 | 1009.2 |
| 20260505115505 | 54 | 61 | 6.0 | 22.0 | 0.00 | 0.11 | 0.07 | 57 | 1009.2 |
| 20260505115405 | 54 | 68 | 5.0 | 24.0 | 0.00 | 0.11 | 0.07 | 57 | 1009.2 |
| 20260505115305 | 54 | 66 | 6.0 | 24.0 | 0.00 | 0.11 | 0.07 | 57 | 1009.2 |
| 20260505115205 | 54 | 67 | 6.0 | 24.0 | 0.00 | 0.11 | 0.07 | 57 | 1009.1 |
| 20260505115105 | 54 | 65 | 6.0 | 24.0 | 0.00 | 0.11 | 0.07 | 57 | 1009.1 |
| 20260505115005 | 54 | 65 | 7.0 | 24.0 | 0.00 | 0.11 | 0.07 | 57 | 1009.1 |
| 20260505114905 | 54 | 62 | 7.0 | 24.0 | 0.00 | 0.11 | 0.07 | 57 | 1009.1 |
| 20260505114805 | 54 | 62 | 7.0 | 24.0 | 0.00 | 0.11 | 0.07 | 57 | 1009.2 |
| 20260505114705 | 54 | 62 | 7.0 | 24.0 | 0.00 | 0.11 | 0.07 | 56 | 1009.2 |
| 20260505114505 | 54 | 66 | 6.0 | 24.0 | 0.00 | 0.11 | 0.07 | 56 | 1009.0 |
| 20260505114404 | 54 | 62 | 6.0 | 17.0 | 0.00 | 0.11 | 0.07 | 56 | 1009.0 |
| 20260505114205 | 54 | 64 | 6.0 | 17.0 | 0.00 | 0.11 | 0.07 | 56 | 1009.0 |
| 20260505114105 | 54 | 64 | 5.0 | 17.0 | 0.00 | 0.11 | 0.07 | 56 | 1009.0 |
| 20260505114005 | 54 | 63 | 5.0 | 16.0 | 0.00 | 0.11 | 0.07 | 57 | 1009.1 |
| 20260505113905 | 54 | 66 | 5.0 | 16.0 | 0.00 | 0.11 | 0.07 | 57 | 1009.0 |
| 20260505113805 | 54 | 65 | 5.0 | 16.0 | 0.00 | 0.11 | 0.07 | 57 | 1009.0 |
| 20260505113705 | 54 | 64 | 4.0 | 16.0 | 0.00 | 0.11 | 0.07 | 56 | 1009.0 |
| 20260505113605 | 54 | 65 | 4.0 | 16.0 | 0.00 | 0.11 | 0.07 | 57 | 1009.1 |
| 20260505113305 | 54 | 64 | 5.0 | 19.0 | 0.00 | 0.11 | 0.07 | 56 | 1009.0 |
| 20260505113205 | 54 | 66 | 5.0 | 19.0 | 0.00 | 0.11 | 0.07 | 57 | 1008.9 |
| 20260505113105 | 54 | 66 | 5.0 | 19.0 | 0.00 | 0.11 | 0.07 | 56 | 1008.9 |
| 20260505113005 | 54 | 66 | 5.0 | 19.0 | 0.00 | 0.11 | 0.07 | 55 | 1008.9 |
| 20260505112904 | 54 | 69 | 5.0 | 19.0 | 0.00 | 0.11 | 0.07 | 55 | 1008.8 |
| 20260505112704 | 54 | 72 | 5.0 | 19.0 | 0.00 | 0.11 | 0.07 | 54 | 1008.9 |
| 20260505112604 | 55 | 73 | 6.0 | 19.0 | 0.00 | 0.11 | 0.07 | 54 | 1008.8 |
| 20260505112405 | 55 | 72 | 5.0 | 19.0 | 0.00 | 0.11 | 0.07 | 53 | 1008.8 |
| 20260505112305 | 55 | 79 | 5.0 | 18.0 | 0.00 | 0.11 | 0.07 | 54 | 1008.8 |
| 20260505112105 | 55 | 70 | 5.0 | 15.0 | 0.00 | 0.11 | 0.07 | 54 | 1008.7 |
| 20260505112005 | 55 | 70 | 5.0 | 15.0 | 0.00 | 0.11 | 0.07 | 54 | 1008.6 |
| 20260505111905 | 55 | 68 | 6.0 | 15.0 | 0.00 | 0.11 | 0.07 | 54 | 1008.7 |
| 20260505111605 | 55 | 69 | 6.0 | 15.0 | 0.00 | 0.11 | 0.07 | 53 | 1008.4 |
| 20260505111505 | 55 | 68 | 7.0 | 18.0 | 0.00 | 0.11 | 0.07 | 54 | 1008.4 |
| 20260505111305 | 55 | 66 | 7.0 | 19.0 | 0.00 | 0.11 | 0.07 | 54 | 1008.3 |
| 20260505111205 | 55 | 69 | 7.0 | 24.0 | 0.00 | 0.11 | 0.07 | 54 | 1008.3 |
| 20260505111104 | 55 | 71 | 7.0 | 24.0 | 0.00 | 0.11 | 0.07 | 54 | 1008.3 |
| 20260505111005 | 55 | 70 | 7.0 | 24.0 | 0.00 | 0.11 | 0.07 | 53 | 1008.3 |
| 20260505110904 | 55 | 69 | 6.0 | 24.0 | 0.00 | 0.11 | 0.07 | 53 | 1008.2 |
| 20260505110605 | 55 | 68 | 7.0 | 24.0 | 0.00 | 0.11 | 0.07 | 53 | 1008.1 |
| 20260505110504 | 55 | 69 | 7.0 | 24.0 | 0.00 | 0.11 | 0.07 | 53 | 1008.2 |
| 20260505110304 | 55 | 72 | 6.0 | 24.0 | 0.00 | 0.11 | 0.07 | 53 | 1008.2 |
| 20260505110204 | 55 | 71 | 7.0 | 19.0 | 0.00 | 0.11 | 0.07 | 54 | 1008.1 |
| 20260505110104 | 55 | 72 | 7.0 | 19.0 | 0.00 | 0.11 | 0.07 | 53 | 1008.1 |
| 20260505102105 | 55 | 67 | 8.0 | 23.0 | 0.00 | 0.11 | 0.07 | 54 | 1007.4 |
| 20260505101905 | 55 | 66 | 8.0 | 21.0 | 0.00 | 0.11 | 0.07 | 54 | 1007.4 |
| 20260505101805 | 55 | 68 | 7.0 | 21.0 | 0.00 | 0.11 | 0.07 | 54 | 1007.5 |
| 20260505101704 | 55 | 67 | 7.0 | 21.0 | 0.00 | 0.11 | 0.07 | 55 | 1007.3 |
| 20260505101605 | 55 | 65 | 8.0 | 26.0 | 0.00 | 0.11 | 0.07 | 56 | 1007.4 |
| 20260505101505 | 55 | 67 | 8.0 | 26.0 | 0.00 | 0.11 | 0.07 | 55 | 1007.4 |
| 20260505101405 | 55 | 66 | 9.0 | 26.0 | 0.00 | 0.11 | 0.07 | 55 | 1007.4 |
| 20260505101304 | 55 | 66 | 9.0 | 26.0 | 0.00 | 0.11 | 0.07 | 55 | 1007.4 |
| 20260505101104 | 55 | 65 | 10.0 | 26.0 | 0.00 | 0.11 | 0.07 | 55 | 1007.3 |
| 20260505101004 | 55 | 69 | 10.0 | 26.0 | 0.00 | 0.11 | 0.07 | 55 | 1007.3 |
| 20260505100904 | 55 | 70 | 10.0 | 26.0 | 0.00 | 0.11 | 0.07 | 55 | 1007.4 |
| 20260505100804 | 55 | 67 | 10.0 | 26.0 | 0.00 | 0.11 | 0.07 | 55 | 1007.4 |
| 20260505100604 | 55 | 62 | 9.0 | 26.0 | 0.00 | 0.11 | 0.07 | 55 | 1007.4 |
| 20260505100404 | 55 | 59 | 9.0 | 23.0 | 0.00 | 0.11 | 0.07 | 55 | 1007.4 |
| 20260505100304 | 55 | 58 | 9.0 | 23.0 | 0.00 | 0.11 | 0.07 | 56 | 1007.4 |
| 20260505100204 | 55 | 58 | 8.0 | 23.0 | 0.00 | 0.11 | 0.07 | 56 | 1007.4 |
| 20260505100004 | 55 | 57 | 8.0 | 23.0 | 0.00 | 0.11 | 0.07 | 56 | 1007.4 |
| 20260505095805 | 55 | 56 | 7.0 | 20.0 | 0.00 | 0.11 | 0.07 | 57 | 1007.6 |
| 20260505095605 | 55 | 66 | 7.0 | 21.0 | 0.00 | 0.11 | 0.07 | 58 | 1007.5 |
| 20260505095505 | 55 | 68 | 7.0 | 22.0 | 0.00 | 0.11 | 0.07 | 58 | 1007.5 |
| 20260505095405 | 55 | 70 | 7.0 | 22.0 | 0.00 | 0.11 | 0.07 | 58 | 1007.4 |
| 20260505095305 | 56 | 68 | 7.0 | 22.0 | 0.00 | 0.11 | 0.07 | 59 | 1007.5 |
| 20260505095204 | 56 | 70 | 8.0 | 22.0 | 0.00 | 0.11 | 0.07 | 59 | 1007.4 |
| 20260505095105 | 56 | 69 | 8.0 | 22.0 | 0.00 | 0.11 | 0.07 | 58 | 1007.5 |
| 20260505095005 | 56 | 69 | 8.0 | 22.0 | 0.00 | 0.11 | 0.07 | 59 | 1007.5 |
| 20260505094905 | 56 | 70 | 8.0 | 22.0 | 0.00 | 0.11 | 0.07 | 59 | 1007.5 |
| 20260505094805 | 56 | 69 | 8.0 | 22.0 | 0.00 | 0.11 | 0.07 | 58 | 1007.4 |
| 20260505094704 | 56 | 68 | 8.0 | 22.0 | 0.00 | 0.11 | 0.07 | 58 | 1007.4 |
| 20260505094604 | 56 | 64 | 7.0 | 22.0 | 0.00 | 0.11 | 0.07 | 58 | 1007.4 |
| 20260505094505 | 56 | 63 | 7.0 | 20.0 | 0.00 | 0.11 | 0.07 | 59 | 1007.5 |
| 20260505094405 | 56 | 60 | 7.0 | 20.0 | 0.00 | 0.11 | 0.07 | 59 | 1007.4 |
| 20260505094305 | 56 | 63 | 7.0 | 20.0 | 0.00 | 0.11 | 0.07 | 60 | 1007.4 |
| 20260505094205 | 56 | 61 | 7.0 | 20.0 | 0.00 | 0.11 | 0.07 | 60 | 1007.4 |
| 20260505094105 | 56 | 60 | 7.0 | 21.0 | 0.00 | 0.11 | 0.07 | 60 | 1007.4 |
| 20260505094005 | 56 | 62 | 7.0 | 22.0 | 0.00 | 0.11 | 0.07 | 60 | 1007.4 |
| 20260505093805 | 56 | 61 | 7.0 | 22.0 | 0.00 | 0.11 | 0.07 | 61 | 1007.4 |
| 20260505093705 | 56 | 62 | 8.0 | 22.0 | 0.00 | 0.11 | 0.07 | 61 | 1007.3 |
| 20260505093505 | 56 | 65 | 7.0 | 22.0 | 0.00 | 0.11 | 0.07 | 60 | 1007.4 |
| 20260505093305 | 56 | 62 | 7.0 | 22.0 | 0.00 | 0.11 | 0.07 | 60 | 1007.2 |
| 20260505093205 | 56 | 65 | 7.0 | 22.0 | 0.00 | 0.11 | 0.07 | 60 | 1007.1 |
| 20260505093105 | 56 | 65 | 7.0 | 22.0 | 0.00 | 0.11 | 0.07 | 61 | 1007.2 |
| 20260505093005 | 56 | 65 | 6.0 | 22.0 | 0.00 | 0.11 | 0.07 | 61 | 1007.2 |
| 20260505092904 | 56 | 66 | 6.0 | 22.0 | 0.00 | 0.11 | 0.07 | 62 | 1007.1 |
| 20260505092804 | 56 | 66 | 6.0 | 22.0 | 0.00 | 0.11 | 0.07 | 62 | 1007.2 |
| 20260505092704 | 56 | 64 | 6.0 | 22.0 | 0.00 | 0.11 | 0.07 | 62 | 1007.2 |
| 20260505092605 | 56 | 60 | 6.0 | 22.0 | 0.00 | 0.11 | 0.07 | 64 | 1007.2 |
| 20260505092505 | 56 | 57 | 6.0 | 22.0 | 0.00 | 0.11 | 0.07 | 64 | 1007.1 |
| 20260505092305 | 56 | 61 | 6.0 | 22.0 | 0.00 | 0.11 | 0.07 | 64 | 1007.1 |
| 20260505092205 | 56 | 61 | 6.0 | 22.0 | 0.00 | 0.11 | 0.07 | 65 | 1007.1 |
| 20260505092105 | 56 | 60 | 6.0 | 22.0 | 0.00 | 0.11 | 0.07 | 64 | 1007.1 |
| 20260505092005 | 56 | 58 | 5.0 | 15.0 | 0.00 | 0.11 | 0.07 | 65 | 1007.1 |
| 20260505091905 | 56 | 59 | 5.0 | 15.0 | 0.00 | 0.11 | 0.07 | 66 | 1007.2 |
| 20260505091805 | 56 | 61 | 5.0 | 15.0 | 0.00 | 0.11 | 0.07 | 66 | 1007.1 |
| 20260505091704 | 56 | 65 | 6.0 | 18.0 | 0.00 | 0.11 | 0.07 | 66 | 1007.1 |
| 20260505091604 | 56 | 65 | 6.0 | 18.0 | 0.00 | 0.11 | 0.07 | 67 | 1007.1 |
| 20260505091504 | 56 | 69 | 6.0 | 19.0 | 0.00 | 0.11 | 0.07 | 67 | 1007.0 |
| 20260505091305 | 56 | 65 | 6.0 | 21.0 | 0.00 | 0.11 | 0.07 | 68 | 1007.0 |
| 20260505091205 | 56 | 65 | 6.0 | 21.0 | 0.00 | 0.11 | 0.07 | 67 | 1007.0 |
| 20260505091105 | 56 | 65 | 6.0 | 21.0 | 0.00 | 0.11 | 0.07 | 67 | 1007.0 |
| 20260505091005 | 56 | 64 | 6.0 | 21.0 | 0.00 | 0.11 | 0.07 | 67 | 1007.0 |
| 20260505090904 | 56 | 64 | 7.0 | 21.0 | 0.00 | 0.11 | 0.07 | 67 | 1006.9 |
| 20260505090805 | 56 | 61 | 6.0 | 21.0 | 0.00 | 0.11 | 0.07 | 67 | 1006.9 |
| 20260505090704 | 56 | 61 | 6.0 | 21.0 | 0.00 | 0.11 | 0.07 | 68 | 1006.9 |
| 20260505090604 | 56 | 63 | 6.0 | 21.0 | 0.00 | 0.11 | 0.07 | 68 | 1006.9 |
| 20260505090504 | 56 | 62 | 6.0 | 21.0 | 0.00 | 0.11 | 0.07 | 68 | 1006.9 |
| 20260505090404 | 56 | 66 | 6.0 | 21.0 | 0.00 | 0.11 | 0.07 | 69 | 1007.0 |
| 20260505090305 | 56 | 69 | 6.0 | 17.0 | 0.00 | 0.11 | 0.07 | 69 | 1007.0 |
| 20260505090204 | 56 | 70 | 6.0 | 17.0 | 0.00 | 0.11 | 0.07 | 69 | 1007.1 |
| 20260505090104 | 56 | 68 | 7.0 | 17.0 | 0.00 | 0.11 | 0.07 | 68 | 1007.1 |
| 20260505090004 | 56 | 68 | 7.0 | 17.0 | 0.00 | 0.11 | 0.07 | 69 | 1007.2 |
| 20260505085905 | 56 | 68 | 7.0 | 17.0 | 0.00 | 0.11 | 0.07 | 68 | 1007.2 |
| 20260505085805 | 56 | 71 | 7.0 | 24.0 | 0.00 | 0.11 | 0.07 | 68 | 1007.2 |
| 20260505085705 | 56 | 72 | 7.0 | 24.0 | 0.00 | 0.11 | 0.07 | 68 | 1007.1 |
| 20260505085605 | 56 | 70 | 7.0 | 24.0 | 0.00 | 0.11 | 0.07 | 69 | 1007.1 |
| 20260505085505 | 56 | 71 | 7.0 | 24.0 | 0.00 | 0.11 | 0.07 | 69 | 1007.2 |
| 20260505085405 | 56 | 70 | 7.0 | 24.0 | 0.00 | 0.11 | 0.07 | 69 | 1007.1 |
| 20260505085105 | 56 | 66 | 7.0 | 24.0 | 0.00 | 0.11 | 0.07 | 69 | 1007.0 |
| 20260505085005 | 56 | 66 | 7.0 | 24.0 | 0.00 | 0.11 | 0.07 | 69 | 1007.1 |
| 20260505084905 | 56 | 65 | 7.0 | 24.0 | 0.00 | 0.11 | 0.07 | 70 | 1007.0 |
| 20260505084604 | 56 | 68 | 7.0 | 20.0 | 0.00 | 0.11 | 0.07 | 72 | 1007.0 |
| 20260505084304 | 56 | 61 | 6.0 | 20.0 | 0.00 | 0.11 | 0.07 | 73 | 1007.0 |
| 20260505084205 | 56 | 55 | 6.0 | 20.0 | 0.00 | 0.11 | 0.07 | 74 | 1007.0 |
| 20260505084105 | 57 | 54 | 5.0 | 20.0 | 0.00 | 0.11 | 0.07 | 74 | 1006.8 |
| 20260505084005 | 57 | 52 | 5.0 | 20.0 | 0.00 | 0.11 | 0.07 | 75 | 1006.9 |
| 20260505083805 | 57 | 56 | 5.0 | 20.0 | 0.00 | 0.11 | 0.07 | 75 | 1006.9 |
| 20260505083705 | 57 | 53 | 5.0 | 17.0 | 0.00 | 0.11 | 0.07 | 76 | 1006.9 |
| 20260505083605 | 57 | 47 | 5.0 | 17.0 | 0.00 | 0.11 | 0.07 | 75 | 1006.9 |
| 20260505083405 | 57 | 64 | 5.0 | 18.0 | 0.00 | 0.11 | 0.07 | 75 | 1006.7 |
| 20260505083305 | 57 | 68 | 5.0 | 18.0 | 0.00 | 0.11 | 0.07 | 75 | 1006.7 |
| 20260505083105 | 57 | 76 | 6.0 | 18.0 | 0.00 | 0.11 | 0.07 | 75 | 1006.6 |
| 20260505083005 | 57 | 77 | 6.0 | 18.0 | 0.00 | 0.11 | 0.07 | 74 | 1006.6 |
| 20260505082805 | 57 | 73 | 6.0 | 18.0 | 0.00 | 0.11 | 0.07 | 74 | 1006.6 |
| 20260505082705 | 57 | 72 | 6.0 | 18.0 | 0.00 | 0.11 | 0.07 | 74 | 1006.6 |
| 20260505082605 | 57 | 73 | 6.0 | 18.0 | 0.00 | 0.11 | 0.07 | 74 | 1006.6 |
| 20260505082505 | 57 | 72 | 6.0 | 18.0 | 0.00 | 0.11 | 0.07 | 73 | 1006.4 |
| 20260505082405 | 57 | 68 | 5.0 | 18.0 | 0.00 | 0.11 | 0.07 | 74 | 1006.4 |
| 20260505082305 | 58 | 66 | 6.0 | 18.0 | 0.00 | 0.11 | 0.07 | 75 | 1006.4 |
| 20260505082205 | 58 | 66 | 6.0 | 18.0 | 0.00 | 0.11 | 0.07 | 75 | 1006.4 |
| 20260505082105 | 58 | 62 | 5.0 | 18.0 | 0.00 | 0.11 | 0.07 | 74 | 1006.4 |
| 20260505082005 | 58 | 63 | 6.0 | 18.0 | 0.00 | 0.11 | 0.07 | 75 | 1006.4 |
| 20260505081805 | 58 | 65 | 5.0 | 20.0 | 0.00 | 0.11 | 0.07 | 75 | 1006.3 |
| 20260505081605 | 58 | 69 | 6.0 | 20.0 | 0.00 | 0.11 | 0.07 | 76 | 1006.3 |
| 20260505081505 | 58 | 70 | 7.0 | 20.0 | 0.00 | 0.11 | 0.07 | 76 | 1006.2 |
| 20260505081405 | 58 | 68 | 7.0 | 20.0 | 0.00 | 0.11 | 0.07 | 77 | 1006.1 |
| 20260505081305 | 58 | 66 | 7.0 | 20.0 | 0.00 | 0.11 | 0.07 | 77 | 1006.1 |
| 20260505081105 | 58 | 67 | 7.0 | 20.0 | 0.00 | 0.11 | 0.07 | 77 | 1005.9 |
| 20260505081005 | 58 | 66 | 7.0 | 20.0 | 0.00 | 0.11 | 0.07 | 77 | 1006.0 |
| 20260505080805 | 58 | 65 | 7.0 | 19.0 | 0.00 | 0.11 | 0.07 | 77 | 1005.8 |
| 20260505080705 | 58 | 67 | 7.0 | 19.0 | 0.00 | 0.11 | 0.07 | 77 | 1005.8 |
| 20260505080605 | 58 | 63 | 7.0 | 19.0 | 0.00 | 0.11 | 0.07 | 77 | 1005.8 |
| 20260505080505 | 58 | 61 | 6.0 | 19.0 | 0.00 | 0.11 | 0.07 | 77 | 1005.9 |
| 20260505080405 | 59 | 61 | 6.0 | 19.0 | 0.00 | 0.11 | 0.07 | 77 | 1005.8 |
| 20260505080305 | 59 | 62 | 5.0 | 19.0 | 0.00 | 0.11 | 0.07 | 78 | 1005.9 |
| 20260505080205 | 59 | 55 | 5.0 | 19.0 | 0.00 | 0.11 | 0.07 | 78 | 1005.9 |
| 20260505080105 | 59 | 55 | 5.0 | 19.0 | 0.00 | 0.11 | 0.07 | 79 | 1006.0 |
| 20260505080005 | 59 | 52 | 5.0 | 16.0 | 0.00 | 0.11 | 0.07 | 80 | 1006.0 |
| 20260505075905 | 59 | 50 | 5.0 | 16.0 | 0.00 | 0.11 | 0.07 | 80 | 1006.1 |
| 20260505075804 | 59 | 48 | 5.0 | 16.0 | 0.00 | 0.11 | 0.07 | 80 | 1006.1 |
| 20260505075704 | 59 | 41 | 5.0 | 16.0 | 0.00 | 0.11 | 0.07 | 81 | 1006.1 |
| 20260505075604 | 59 | 37 | 5.0 | 16.0 | 0.00 | 0.11 | 0.07 | 82 | 1006.0 |
| 20260505075404 | 59 | 38 | 5.0 | 16.0 | 0.00 | 0.11 | 0.07 | 82 | 1006.0 |
| 20260505075104 | 60 | 37 | 5.0 | 13.0 | 0.00 | 0.11 | 0.07 | 82 | 1005.9 |
| 20260505075004 | 60 | 35 | 4.0 | 13.0 | 0.00 | 0.11 | 0.07 | 83 | 1006.0 |
| 20260505074905 | 60 | 36 | 5.0 | 13.0 | 0.00 | 0.11 | 0.07 | 82 | 1005.8 |
| 20260505074805 | 60 | 36 | 5.0 | 13.0 | 0.00 | 0.11 | 0.07 | 82 | 1005.9 |
| 20260505074705 | 60 | 36 | 4.0 | 13.0 | 0.00 | 0.11 | 0.07 | 82 | 1005.8 |
| 20260505074605 | 60 | 39 | 5.0 | 13.0 | 0.00 | 0.11 | 0.07 | 82 | 1005.8 |
| 20260505074405 | 60 | 43 | 5.0 | 13.0 | 0.00 | 0.11 | 0.07 | 82 | 1005.8 |
| 20260505074305 | 60 | 42 | 5.0 | 13.0 | 0.00 | 0.11 | 0.07 | 82 | 1005.8 |
| 20260505074205 | 60 | 47 | 5.0 | 16.0 | 0.00 | 0.11 | 0.07 | 82 | 1005.7 |
| 20260505074104 | 60 | 47 | 5.0 | 16.0 | 0.00 | 0.11 | 0.07 | 82 | 1005.7 |
| 20260505073904 | 60 | 48 | 5.0 | 16.0 | 0.00 | 0.11 | 0.07 | 82 | 1005.8 |
| 20260505073605 | 60 | 48 | 4.0 | 16.0 | 0.00 | 0.11 | 0.07 | 82 | 1005.7 |
| 20260505073505 | 60 | 48 | 4.0 | 16.0 | 0.00 | 0.11 | 0.07 | 82 | 1005.8 |
| 20260505073405 | 60 | 46 | 4.0 | 16.0 | 0.00 | 0.11 | 0.07 | 82 | 1005.8 |
| 20260505073305 | 60 | 47 | 4.0 | 16.0 | 0.00 | 0.11 | 0.07 | 82 | 1005.8 |
| 20260505073205 | 60 | 44 | 4.0 | 11.0 | 0.00 | 0.11 | 0.07 | 83 | 1005.7 |
| 20260505073105 | 60 | 41 | 4.0 | 11.0 | 0.00 | 0.11 | 0.07 | 83 | 1005.8 |
| 20260505072905 | 60 | 45 | 4.0 | 11.0 | 0.00 | 0.11 | 0.07 | 82 | 1005.8 |
| 20260505072804 | 60 | 47 | 4.0 | 15.0 | 0.00 | 0.11 | 0.07 | 83 | 1005.8 |
| 20260505072704 | 60 | 46 | 4.0 | 15.0 | 0.01 | 0.11 | 0.07 | 83 | 1005.8 |
| 20260505072604 | 60 | 43 | 4.0 | 15.0 | 0.01 | 0.11 | 0.07 | 83 | 1005.8 |
| 20260505072504 | 60 | 40 | 4.0 | 15.0 | 0.01 | 0.11 | 0.07 | 83 | 1005.8 |
| 20260505072404 | 60 | 43 | 4.0 | 15.0 | 0.01 | 0.11 | 0.07 | 83 | 1005.7 |
| 20260505072305 | 60 | 44 | 4.0 | 15.0 | 0.01 | 0.11 | 0.07 | 83 | 1005.7 |
| 20260505072104 | 60 | 47 | 4.0 | 15.0 | 0.01 | 0.11 | 0.07 | 83 | 1005.6 |
| 20260505072005 | 60 | 46 | 4.0 | 15.0 | 0.01 | 0.11 | 0.07 | 84 | 1005.6 |
| 20260505071904 | 60 | 48 | 4.0 | 15.0 | 0.01 | 0.11 | 0.07 | 84 | 1005.5 |
| 20260505071804 | 60 | 50 | 4.0 | 15.0 | 0.01 | 0.11 | 0.07 | 84 | 1005.5 |
| 20260505071704 | 60 | 53 | 4.0 | 11.0 | 0.01 | 0.11 | 0.07 | 84 | 1005.5 |
| 20260505071604 | 59 | 57 | 4.0 | 11.0 | 0.01 | 0.11 | 0.07 | 84 | 1005.5 |
| 20260505071504 | 59 | 65 | 3.0 | 11.0 | 0.01 | 0.11 | 0.07 | 85 | 1005.5 |
| 20260505071204 | 59 | 68 | 3.0 | 11.0 | 0.01 | 0.11 | 0.07 | 86 | 1005.6 |
| 20260505071104 | 59 | 69 | 3.0 | 11.0 | 0.01 | 0.11 | 0.07 | 86 | 1005.5 |
| 20260505071004 | 59 | 68 | 3.0 | 11.0 | 0.01 | 0.11 | 0.07 | 86 | 1005.5 |
| 20260505070904 | 59 | 67 | 3.0 | 11.0 | 0.01 | 0.11 | 0.07 | 86 | 1005.6 |
| 20260505070804 | 59 | 67 | 3.0 | 11.0 | 0.01 | 0.11 | 0.07 | 86 | 1005.5 |
| 20260505070704 | 59 | 62 | 3.0 | 11.0 | 0.01 | 0.11 | 0.07 | 86 | 1005.5 |
| 20260505070604 | 59 | 57 | 3.0 | 10.0 | 0.01 | 0.11 | 0.07 | 86 | 1005.5 |
| 20260505070504 | 59 | 51 | 3.0 | 9.0 | 0.01 | 0.11 | 0.07 | 87 | 1005.5 |
| 20260505070404 | 59 | 50 | 3.0 | 9.0 | 0.01 | 0.11 | 0.07 | 87 | 1005.5 |
| 20260505070304 | 59 | 48 | 2.0 | 8.0 | 0.01 | 0.11 | 0.07 | 87 | 1005.5 |
| 20260505070204 | 59 | 48 | 2.0 | 8.0 | 0.01 | 0.11 | 0.07 | 87 | 1005.5 |
| 20260505070104 | 59 | 51 | 3.0 | 8.0 | 0.01 | 0.11 | 0.07 | 87 | 1005.5 |
| 20260505070005 | 59 | 48 | 3.0 | 9.0 | 0.01 | 0.11 | 0.07 | 87 | 1005.7 |
| 20260505065905 | 59 | 46 | 3.0 | 9.0 | 0.01 | 0.11 | 0.07 | 87 | 1005.7 |
| 20260505065805 | 59 | 42 | 3.0 | 10.0 | 0.01 | 0.11 | 0.07 | 87 | 1005.7 |
| 20260505065705 | 59 | 46 | 3.0 | 10.0 | 0.01 | 0.11 | 0.07 | 87 | 1005.7 |
| 20260505065505 | 59 | 39 | 4.0 | 17.0 | 0.01 | 0.11 | 0.07 | 87 | 1005.8 |
| 20260505065405 | 59 | 39 | 5.0 | 17.0 | 0.01 | 0.11 | 0.07 | 87 | 1005.7 |
| 20260505065305 | 59 | 33 | 5.0 | 17.0 | 0.01 | 0.11 | 0.07 | 86 | 1005.7 |
| 20260505065205 | 60 | 25 | 5.0 | 17.0 | 0.01 | 0.11 | 0.07 | 86 | 1005.6 |
| 20260505065105 | 60 | 18 | 5.0 | 17.0 | 0.01 | 0.11 | 0.07 | 86 | 1005.5 |
| 20260505065004 | 60 | 14 | 5.0 | 17.0 | 0.01 | 0.11 | 0.07 | 86 | 1005.6 |
| 20260505064904 | 60 | 16 | 5.0 | 17.0 | 0.01 | 0.11 | 0.07 | 85 | 1005.6 |
| 20260505064805 | 60 | 17 | 5.0 | 17.0 | 0.01 | 0.11 | 0.07 | 85 | 1005.5 |
| 20260505064705 | 60 | 18 | 5.0 | 17.0 | 0.01 | 0.11 | 0.07 | 84 | 1005.6 |
| 20260505064604 | 60 | 20 | 4.0 | 17.0 | 0.01 | 0.11 | 0.07 | 84 | 1005.6 |
| 20260505064504 | 61 | 21 | 4.0 | 13.0 | 0.01 | 0.11 | 0.07 | 83 | 1005.5 |
| 20260505064404 | 61 | 25 | 4.0 | 10.0 | 0.01 | 0.11 | 0.07 | 83 | 1005.6 |
| 20260505064305 | 61 | 37 | 3.0 | 10.0 | 0.01 | 0.11 | 0.07 | 83 | 1005.6 |
| 20260505064204 | 62 | 54 | 3.0 | 10.0 | 0.01 | 0.11 | 0.07 | 83 | 1005.6 |
| 20260505064104 | 62 | 68 | 3.0 | 10.0 | 0.01 | 0.11 | 0.07 | 82 | 1005.6 |
| 20260505064004 | 62 | 80 | 3.0 | 10.0 | 0.01 | 0.11 | 0.07 | 82 | 1005.6 |
| 20260505063904 | 62 | 86 | 3.0 | 10.0 | 0.01 | 0.11 | 0.07 | 81 | 1005.5 |
| 20260505063804 | 62 | 90 | 3.0 | 10.0 | 0.01 | 0.11 | 0.07 | 81 | 1005.4 |
| 20260505063704 | 62 | 91 | 3.0 | 10.0 | 0.01 | 0.11 | 0.07 | 80 | 1005.4 |
| 20260505063604 | 62 | 104 | 3.0 | 10.0 | 0.01 | 0.11 | 0.07 | 80 | 1005.3 |
| 20260505063504 | 62 | 114 | 3.0 | 10.0 | 0.01 | 0.11 | 0.07 | 80 | 1005.3 |
| 20260505063404 | 63 | 127 | 3.0 | 7.0 | 0.01 | 0.11 | 0.07 | 80 | 1005.3 |
| 20260505063004 | 63 | 234 | 4.0 | 12.0 | 0.01 | 0.11 | 0.07 | 79 | 1005.2 |
| 20260505062904 | 63 | 249 | 4.0 | 12.0 | 0.01 | 0.11 | 0.07 | 78 | 1005.4 |
| 20260505062805 | 64 | 264 | 4.0 | 12.0 | 0.01 | 0.11 | 0.07 | 78 | 1005.5 |
| 20260505062705 | 64 | 269 | 4.0 | 12.0 | 0.00 | 0.10 | 0.06 | 76 | 1005.8 |
| 20260505062605 | 64 | 282 | 5.0 | 12.0 | 0.00 | 0.10 | 0.06 | 76 | 1006.1 |
| 20260505062505 | 64 | 291 | 5.0 | 12.0 | 0.00 | 0.10 | 0.06 | 75 | 1006.3 |
| 20260505062405 | 65 | 296 | 4.0 | 12.0 | 0.00 | 0.10 | 0.06 | 76 | 1006.5 |
| 20260505062304 | 66 | 305 | 3.0 | 12.0 | 0.00 | 0.10 | 0.06 | 82 | 1006.3 |
| 20260505062204 | 66 | 309 | 3.0 | 11.0 | 0.00 | 0.10 | 0.06 | 82 | 1006.3 |
| 20260505062105 | 66 | 316 | 3.0 | 11.0 | 0.00 | 0.10 | 0.06 | 84 | 1006.2 |
| 20260505062005 | 67 | 320 | 2.0 | 8.0 | 0.00 | 0.10 | 0.06 | 85 | 1006.0 |
| 20260505061905 | 67 | 326 | 2.0 | 8.0 | 0.00 | 0.10 | 0.06 | 86 | 1005.8 |
| 20260505061805 | 67 | 336 | 2.0 | 8.0 | 0.00 | 0.10 | 0.06 | 86 | 1005.7 |
| 20260505061705 | 67 | 356 | 2.0 | 8.0 | 0.00 | 0.10 | 0.06 | 86 | 1005.5 |
| 20260505061605 | 67 | 53 | 1.0 | 8.0 | 0.00 | 0.10 | 0.06 | 85 | 1005.2 |
| 20260505061505 | 67 | 90 | 1.0 | 8.0 | 0.00 | 0.10 | 0.06 | 86 | 1005.1 |
| 20260505061305 | 67 | 92 | 2.0 | 11.0 | 0.00 | 0.10 | 0.06 | 86 | 1004.8 |
| 20260505061205 | 67 | 91 | 2.0 | 11.0 | 0.00 | 0.10 | 0.06 | 85 | 1004.6 |
| 20260505061105 | 67 | 89 | 2.0 | 11.0 | 0.00 | 0.10 | 0.06 | 85 | 1004.5 |
| 20260505061005 | 67 | 89 | 2.0 | 11.0 | 0.00 | 0.10 | 0.06 | 85 | 1004.5 |
| 20260505060905 | 67 | 88 | 2.0 | 11.0 | 0.00 | 0.10 | 0.06 | 85 | 1004.5 |
| 20260505060805 | 67 | 87 | 2.0 | 11.0 | 0.00 | 0.10 | 0.06 | 85 | 1004.5 |
| 20260505060705 | 67 | 88 | 2.0 | 11.0 | 0.01 | 0.10 | 0.06 | 86 | 1004.5 |
| 20260505060404 | 67 | 90 | 2.0 | 11.0 | 0.03 | 0.10 | 0.06 | 85 | 1004.5 |
| 20260505060305 | 67 | 92 | 1.0 | 7.0 | 0.05 | 0.10 | 0.06 | 85 | 1004.6 |
| 20260505060204 | 67 | 94 | 1.0 | 6.0 | 0.05 | 0.10 | 0.06 | 86 | 1004.6 |
| 20260505060104 | 67 | 99 | 1.0 | 4.0 | 0.05 | 0.10 | 0.06 | 86 | 1004.6 |
| 20260505055904 | 67 | 102 | 1.0 | 4.0 | 0.07 | 0.10 | 0.06 | 86 | 1004.7 |
| 20260505055804 | 67 | 109 | 1.0 | 3.0 | 0.07 | 0.10 | 0.06 | 86 | 1004.6 |
| 20260505055704 | 67 | 105 | 1.0 | 6.0 | 0.09 | 0.10 | 0.06 | 86 | 1004.6 |
| 20260505055405 | 67 | 96 | 1.0 | 6.0 | 0.10 | 0.10 | 0.06 | 85 | 1004.8 |
| 20260505055205 | 67 | 95 | 1.0 | 6.0 | 0.10 | 0.10 | 0.06 | 85 | 1004.7 |
| 20260505055105 | 67 | 94 | 1.0 | 6.0 | 0.10 | 0.10 | 0.06 | 85 | 1004.7 |
| 20260505055005 | 67 | 92 | 2.0 | 6.0 | 0.10 | 0.10 | 0.06 | 85 | 1004.6 |
| 20260505054905 | 67 | 90 | 2.0 | 10.0 | 0.10 | 0.10 | 0.06 | 85 | 1004.4 |
| 20260505054805 | 67 | 89 | 2.0 | 10.0 | 0.10 | 0.10 | 0.06 | 85 | 1004.4 |
| 20260505054604 | 67 | 87 | 2.0 | 10.0 | 0.10 | 0.10 | 0.06 | 85 | 1004.3 |
| 20260505054504 | 67 | 88 | 2.0 | 10.0 | 0.10 | 0.10 | 0.06 | 86 | 1004.3 |
| 20260505054405 | 67 | 86 | 2.0 | 10.0 | 0.10 | 0.10 | 0.06 | 86 | 1004.3 |
| 20260505054304 | 67 | 82 | 2.0 | 10.0 | 0.10 | 0.10 | 0.06 | 86 | 1004.3 |
| 20260505054105 | 67 | 76 | 2.0 | 10.0 | 0.10 | 0.10 | 0.06 | 86 | 1004.4 |
| 20260505054004 | 67 | 75 | 2.0 | 10.0 | 0.10 | 0.10 | 0.06 | 86 | 1004.4 |
| 20260505053904 | 67 | 74 | 2.0 | 6.0 | 0.10 | 0.10 | 0.06 | 87 | 1004.4 |
| 20260505053704 | 67 | 67 | 2.0 | 6.0 | 0.10 | 0.10 | 0.06 | 87 | 1004.5 |
| 20260505053605 | 67 | 64 | 2.0 | 6.0 | 0.10 | 0.10 | 0.06 | 87 | 1004.5 |
| 20260505053505 | 67 | 63 | 2.0 | 6.0 | 0.10 | 0.10 | 0.06 | 87 | 1004.6 |
| 20260505053404 | 67 | 59 | 2.0 | 6.0 | 0.10 | 0.10 | 0.06 | 87 | 1004.7 |
| 20260505053204 | 67 | 55 | 2.0 | 6.0 | 0.10 | 0.10 | 0.06 | 87 | 1004.7 |
| 20260505053005 | 67 | 54 | 2.0 | 6.0 | 0.10 | 0.10 | 0.06 | 87 | 1004.8 |
| 20260505052905 | 67 | 51 | 2.0 | 6.0 | 0.10 | 0.10 | 0.06 | 87 | 1004.7 |
| 20260505052804 | 67 | 50 | 1.0 | 6.0 | 0.10 | 0.10 | 0.06 | 87 | 1004.7 |
| 20260505052604 | 67 | 43 | 1.0 | 6.0 | 0.10 | 0.10 | 0.06 | 87 | 1004.6 |
| 20260505052405 | 67 | 58 | 1.0 | 6.0 | 0.10 | 0.10 | 0.06 | 87 | 1004.4 |
| 20260505052305 | 67 | 82 | 1.0 | 3.0 | 0.10 | 0.10 | 0.06 | 87 | 1004.3 |
| 20260505052204 | 67 | 101 | 1.0 | 3.0 | 0.10 | 0.10 | 0.06 | 87 | 1004.1 |
| 20260505052005 | 67 | 120 | 1.0 | 5.0 | 0.10 | 0.10 | 0.06 | 86 | 1004.0 |
| 20260505051904 | 67 | 126 | 1.0 | 5.0 | 0.10 | 0.10 | 0.06 | 86 | 1004.1 |
| 20260505051804 | 67 | 133 | 1.0 | 5.0 | 0.10 | 0.10 | 0.06 | 86 | 1004.0 |
| 20260505051704 | 68 | 133 | 1.0 | 5.0 | 0.10 | 0.10 | 0.06 | 86 | 1004.0 |
| 20260505051604 | 68 | 133 | 1.0 | 5.0 | 0.10 | 0.10 | 0.06 | 86 | 1003.9 |
| 20260505051505 | 68 | 134 | 1.0 | 5.0 | 0.10 | 0.10 | 0.06 | 85 | 1003.9 |
| 20260505051404 | 68 | 135 | 1.0 | 5.0 | 0.10 | 0.10 | 0.06 | 85 | 1003.9 |
| 20260505051304 | 68 | 137 | 1.0 | 5.0 | 0.10 | 0.10 | 0.06 | 85 | 1004.0 |
| 20260505051105 | 68 | 142 | 0.0 | 5.0 | 0.10 | 0.10 | 0.06 | 84 | 1004.0 |
| 20260505051004 | 68 | 149 | 0.0 | 3.0 | 0.10 | 0.10 | 0.06 | 83 | 1004.0 |
| 20260505050904 | 68 | 147 | 0.0 | 3.0 | 0.10 | 0.10 | 0.06 | 83 | 1004.0 |
| 20260505050804 | 69 | 129 | 0.0 | 1.0 | 0.09 | 0.09 | 0.05 | 83 | 1004.0 |
| 20260505050705 | 69 | 129 | 0.0 | 1.0 | 0.09 | 0.09 | 0.05 | 82 | 1004.1 |
| 20260505050605 | 69 | 128 | 0.0 | 1.0 | 0.08 | 0.08 | 0.04 | 82 | 1004.2 |
| 20260505050504 | 69 | 128 | 0.0 | 1.0 | 0.07 | 0.07 | 0.03 | 81 | 1004.2 |
| 20260505050404 | 70 | 127 | 0.0 | 1.0 | 0.06 | 0.06 | 0.02 | 79 | 1004.2 |
| 20260505050305 | 70 | 126 | 0.0 | 1.0 | 0.05 | 0.05 | 0.01 | 79 | 1004.3 |
| 20260505050204 | 70 | 125 | 0.0 | 1.0 | 0.05 | 0.05 | 0.01 | 78 | 1004.4 |
| 20260505050104 | 70 | 124 | 0.0 | 1.0 | 0.04 | 0.04 | 0.00 | 78 | 1004.5 |
| 20260505041704 | 72 | 115 | 0.0 | 2.0 | 0.00 | 0.00 | 0.00 | 69 | 1003.7 |
| 20260505041604 | 72 | 115 | 1.0 | 2.0 | 0.00 | 0.00 | 0.00 | 68 | 1003.6 |
| 20260505041504 | 72 | 115 | 1.0 | 2.0 | 0.00 | 0.00 | 0.00 | 69 | 1003.8 |
| 20260505041404 | 72 | 115 | 1.0 | 2.0 | 0.00 | 0.00 | 0.00 | 69 | 1003.7 |
| 20260505041304 | 72 | 115 | 1.0 | 2.0 | 0.00 | 0.00 | 0.00 | 69 | 1003.7 |
| 20260505041204 | 72 | 120 | 1.0 | 2.0 | 0.00 | 0.00 | 0.00 | 69 | 1003.7 |
| 20260505041104 | 72 | 136 | 0.0 | 3.0 | 0.00 | 0.00 | 0.00 | 69 | 1003.7 |
| 20260505040904 | 72 | 143 | 0.0 | 3.0 | 0.00 | 0.00 | 0.00 | 68 | 1003.7 |
| 20260505040804 | 72 | 148 | 0.0 | 3.0 | 0.00 | 0.00 | 0.00 | 68 | 1003.7 |
| 20260505040704 | 72 | 147 | 0.0 | 3.0 | 0.00 | 0.00 | 0.00 | 68 | 1003.7 |
| 20260505040504 | 72 | 159 | 0.0 | 3.0 | 0.00 | 0.00 | 0.00 | 68 | 1003.7 |
| 20260505040404 | 72 | 159 | 0.0 | 3.0 | 0.00 | 0.00 | 0.00 | 68 | 1003.8 |
| 20260505040304 | 72 | 159 | 0.0 | 3.0 | 0.00 | 0.00 | 0.00 | 68 | 1003.8 |
| 20260505040204 | 72 | 148 | 0.0 | 3.0 | 0.00 | 0.00 | 0.00 | 68 | 1003.8 |
| 20260505040104 | 72 | 131 | 0.0 | 1.0 | 0.00 | 0.00 | 0.00 | 68 | 1003.7 |
| 20260505040005 | 72 | 128 | 0.0 | 2.0 | 0.00 | 0.00 | 0.00 | 68 | 1003.8 |
| 20260505035904 | 72 | 122 | 0.0 | 2.0 | 0.00 | 0.00 | 0.00 | 68 | 1003.7 |
| 20260505035705 | 72 | 116 | 1.0 | 3.0 | 0.00 | 0.00 | 0.00 | 68 | 1003.8 |
| 20260505035605 | 72 | 116 | 1.0 | 3.0 | 0.00 | 0.00 | 0.00 | 68 | 1003.7 |
| 20260505035505 | 72 | 118 | 1.0 | 3.0 | 0.00 | 0.00 | 0.00 | 68 | 1003.8 |
| 20260505035405 | 72 | 108 | 1.0 | 7.0 | 0.00 | 0.00 | 0.00 | 68 | 1003.7 |
| 20260505035304 | 72 | 109 | 1.0 | 7.0 | 0.00 | 0.00 | 0.00 | 67 | 1003.7 |
| 20260505035204 | 72 | 109 | 1.0 | 7.0 | 0.00 | 0.00 | 0.00 | 67 | 1003.7 |
| 20260505035004 | 72 | 110 | 1.0 | 7.0 | 0.00 | 0.00 | 0.00 | 67 | 1003.6 |
| 20260505034904 | 72 | 110 | 1.0 | 7.0 | 0.00 | 0.00 | 0.00 | 67 | 1003.6 |
| 20260505034805 | 73 | 110 | 1.0 | 7.0 | 0.00 | 0.00 | 0.00 | 67 | 1003.7 |
| 20260505034705 | 73 | 108 | 1.0 | 7.0 | 0.00 | 0.00 | 0.00 | 67 | 1003.7 |
| 20260505034604 | 73 | 106 | 1.0 | 8.0 | 0.00 | 0.00 | 0.00 | 67 | 1003.7 |
| 20260505034504 | 73 | 105 | 1.0 | 8.0 | 0.00 | 0.00 | 0.00 | 67 | 1003.6 |
| 20260505034404 | 73 | 109 | 1.0 | 8.0 | 0.00 | 0.00 | 0.00 | 66 | 1003.6 |
| 20260505034204 | 73 | 108 | 1.0 | 8.0 | 0.00 | 0.00 | 0.00 | 66 | 1003.6 |
| 20260505034104 | 73 | 108 | 1.0 | 8.0 | 0.00 | 0.00 | 0.00 | 66 | 1003.6 |
| 20260505034005 | 73 | 108 | 2.0 | 8.0 | 0.00 | 0.00 | 0.00 | 66 | 1003.6 |
| 20260505033905 | 73 | 110 | 2.0 | 8.0 | 0.00 | 0.00 | 0.00 | 66 | 1003.6 |
| 20260505033805 | 73 | 110 | 2.0 | 8.0 | 0.00 | 0.00 | 0.00 | 66 | 1003.6 |
| 20260505033705 | 73 | 112 | 1.0 | 8.0 | 0.00 | 0.00 | 0.00 | 66 | 1003.7 |
| 20260505033604 | 73 | 115 | 1.0 | 5.0 | 0.00 | 0.00 | 0.00 | 66 | 1003.7 |
| 20260505033504 | 73 | 113 | 1.0 | 5.0 | 0.00 | 0.00 | 0.00 | 66 | 1003.7 |
| 20260505033404 | 73 | 115 | 1.0 | 4.0 | 0.00 | 0.00 | 0.00 | 66 | 1003.7 |
| 20260505033304 | 73 | 118 | 1.0 | 4.0 | 0.00 | 0.00 | 0.00 | 65 | 1003.7 |
| 20260505033204 | 73 | 119 | 1.0 | 4.0 | 0.00 | 0.00 | 0.00 | 65 | 1003.7 |
| 20260505033104 | 73 | 119 | 1.0 | 4.0 | 0.00 | 0.00 | 0.00 | 65 | 1003.8 |
| 20260505032905 | 73 | 118 | 1.0 | 4.0 | 0.00 | 0.00 | 0.00 | 65 | 1003.8 |
| 20260505032805 | 73 | 119 | 2.0 | 4.0 | 0.00 | 0.00 | 0.00 | 65 | 1003.8 |
| 20260505032705 | 73 | 119 | 2.0 | 4.0 | 0.00 | 0.00 | 0.00 | 65 | 1003.9 |
| 20260505032605 | 74 | 118 | 2.0 | 8.0 | 0.00 | 0.00 | 0.00 | 65 | 1003.9 |
| 20260505032504 | 74 | 121 | 2.0 | 8.0 | 0.00 | 0.00 | 0.00 | 65 | 1003.9 |
| 20260505032404 | 74 | 120 | 2.0 | 8.0 | 0.00 | 0.00 | 0.00 | 65 | 1003.9 |
| 20260505032305 | 74 | 120 | 2.0 | 8.0 | 0.00 | 0.00 | 0.00 | 65 | 1004.0 |
| 20260505032205 | 74 | 120 | 2.0 | 8.0 | 0.00 | 0.00 | 0.00 | 65 | 1004.1 |
| 20260505032105 | 74 | 121 | 2.0 | 8.0 | 0.00 | 0.00 | 0.00 | 64 | 1004.1 |
| 20260505032004 | 74 | 121 | 2.0 | 8.0 | 0.00 | 0.00 | 0.00 | 64 | 1004.1 |
| 20260505031904 | 74 | 120 | 2.0 | 8.0 | 0.00 | 0.00 | 0.00 | 64 | 1004.0 |
| 20260505031804 | 74 | 118 | 2.0 | 8.0 | 0.00 | 0.00 | 0.00 | 64 | 1003.9 |
| 20260505031704 | 74 | 115 | 2.0 | 9.0 | 0.00 | 0.00 | 0.00 | 64 | 1004.0 |
| 20260505031505 | 74 | 113 | 2.0 | 9.0 | 0.00 | 0.00 | 0.00 | 64 | 1004.0 |
| 20260505031405 | 74 | 113 | 2.0 | 9.0 | 0.00 | 0.00 | 0.00 | 64 | 1003.9 |
| 20260505031305 | 74 | 113 | 2.0 | 9.0 | 0.00 | 0.00 | 0.00 | 64 | 1003.8 |
| 20260505031204 | 74 | 112 | 2.0 | 9.0 | 0.00 | 0.00 | 0.00 | 64 | 1003.8 |
| 20260505031105 | 74 | 110 | 2.0 | 9.0 | 0.00 | 0.00 | 0.00 | 64 | 1003.7 |
| 20260505031004 | 74 | 111 | 2.0 | 9.0 | 0.00 | 0.00 | 0.00 | 64 | 1003.7 |
| 20260505030904 | 74 | 111 | 2.0 | 9.0 | 0.00 | 0.00 | 0.00 | 64 | 1003.7 |
| 20260505030804 | 74 | 110 | 2.0 | 9.0 | 0.00 | 0.00 | 0.00 | 64 | 1003.8 |
| 20260505030604 | 74 | 108 | 2.0 | 9.0 | 0.00 | 0.00 | 0.00 | 63 | 1003.8 |
| 20260505030505 | 74 | 107 | 3.0 | 9.0 | 0.00 | 0.00 | 0.00 | 63 | 1003.8 |
| 20260505030305 | 74 | 106 | 2.0 | 9.0 | 0.00 | 0.00 | 0.00 | 63 | 1003.8 |
| 20260505030004 | 74 | 105 | 2.0 | 9.0 | 0.00 | 0.00 | 0.00 | 63 | 1003.7 |
| 20260505025904 | 74 | 104 | 2.0 | 9.0 | 0.00 | 0.00 | 0.00 | 63 | 1003.7 |
| 20260505025804 | 74 | 105 | 2.0 | 9.0 | 0.00 | 0.00 | 0.00 | 63 | 1003.8 |
| 20260505025604 | 74 | 111 | 2.0 | 5.0 | 0.00 | 0.00 | 0.00 | 63 | 1003.8 |
| 20260505025504 | 74 | 114 | 1.0 | 5.0 | 0.00 | 0.00 | 0.00 | 62 | 1003.8 |
| 20260505025404 | 74 | 115 | 2.0 | 5.0 | 0.00 | 0.00 | 0.00 | 62 | 1003.8 |
| 20260505025305 | 74 | 117 | 2.0 | 5.0 | 0.00 | 0.00 | 0.00 | 62 | 1003.8 |
| 20260505025204 | 74 | 117 | 2.0 | 5.0 | 0.00 | 0.00 | 0.00 | 62 | 1003.9 |
| 20260505025004 | 74 | 121 | 2.0 | 5.0 | 0.00 | 0.00 | 0.00 | 62 | 1003.9 |
| 20260505024904 | 74 | 123 | 2.0 | 4.0 | 0.00 | 0.00 | 0.00 | 62 | 1003.9 |
| 20260505024804 | 74 | 122 | 2.0 | 4.0 | 0.00 | 0.00 | 0.00 | 62 | 1003.8 |
| 20260505024704 | 74 | 122 | 2.0 | 4.0 | 0.00 | 0.00 | 0.00 | 62 | 1003.8 |
| 20260505024604 | 74 | 122 | 2.0 | 4.0 | 0.00 | 0.00 | 0.00 | 62 | 1003.9 |
| 20260505024504 | 74 | 122 | 2.0 | 4.0 | 0.00 | 0.00 | 0.00 | 62 | 1003.8 |
| 20260505024404 | 74 | 121 | 2.0 | 4.0 | 0.00 | 0.00 | 0.00 | 61 | 1003.8 |
| 20260505024304 | 74 | 120 | 2.0 | 4.0 | 0.00 | 0.00 | 0.00 | 61 | 1003.8 |
| 20260505024204 | 74 | 121 | 2.0 | 4.0 | 0.00 | 0.00 | 0.00 | 61 | 1003.7 |
| 20260505024104 | 74 | 123 | 2.0 | 4.0 | 0.00 | 0.00 | 0.00 | 61 | 1003.7 |
| 20260505024004 | 74 | 122 | 2.0 | 4.0 | 0.00 | 0.00 | 0.00 | 61 | 1003.6 |
| 20260505023904 | 74 | 123 | 2.0 | 4.0 | 0.00 | 0.00 | 0.00 | 61 | 1003.6 |
| 20260505023704 | 74 | 124 | 2.0 | 4.0 | 0.00 | 0.00 | 0.00 | 61 | 1003.5 |
| 20260505023604 | 74 | 126 | 2.0 | 4.0 | 0.00 | 0.00 | 0.00 | 61 | 1003.5 |
| 20260505023504 | 74 | 127 | 2.0 | 4.0 | 0.00 | 0.00 | 0.00 | 61 | 1003.5 |
| 20260505023404 | 74 | 128 | 2.0 | 4.0 | 0.00 | 0.00 | 0.00 | 61 | 1003.4 |
| 20260505023304 | 74 | 129 | 2.0 | 3.0 | 0.00 | 0.00 | 0.00 | 61 | 1003.4 |
| 20260505023204 | 74 | 130 | 1.0 | 3.0 | 0.00 | 0.00 | 0.00 | 61 | 1003.5 |
| 20260505023004 | 74 | 129 | 1.0 | 3.0 | 0.00 | 0.00 | 0.00 | 61 | 1003.5 |
| 20260505022904 | 74 | 129 | 1.0 | 3.0 | 0.00 | 0.00 | 0.00 | 61 | 1003.5 |
| 20260505022804 | 74 | 129 | 1.0 | 3.0 | 0.00 | 0.00 | 0.00 | 61 | 1003.5 |
| 20260505022604 | 74 | 130 | 1.0 | 4.0 | 0.00 | 0.00 | 0.00 | 60 | 1003.5 |
| 20260505022404 | 74 | 130 | 1.0 | 4.0 | 0.00 | 0.00 | 0.00 | 60 | 1003.6 |
| 20260505022204 | 74 | 127 | 1.0 | 4.0 | 0.00 | 0.00 | 0.00 | 60 | 1003.6 |
| 20260505022104 | 74 | 126 | 1.0 | 4.0 | 0.00 | 0.00 | 0.00 | 60 | 1003.6 |
| 20260505022004 | 74 | 127 | 2.0 | 4.0 | 0.00 | 0.00 | 0.00 | 60 | 1003.5 |
| 20260505021904 | 75 | 128 | 2.0 | 4.0 | 0.00 | 0.00 | 0.00 | 59 | 1003.6 |
| 20260505021804 | 75 | 129 | 2.0 | 4.0 | 0.00 | 0.00 | 0.00 | 59 | 1003.6 |
| 20260505021704 | 75 | 129 | 2.0 | 4.0 | 0.00 | 0.00 | 0.00 | 59 | 1003.5 |
| 20260505021604 | 75 | 132 | 2.0 | 8.0 | 0.00 | 0.00 | 0.00 | 59 | 1003.5 |
| 20260505021504 | 75 | 132 | 2.0 | 8.0 | 0.00 | 0.00 | 0.00 | 59 | 1003.5 |
| 20260505021104 | 75 | 140 | 2.0 | 8.0 | 0.00 | 0.00 | 0.00 | 59 | 1003.6 |
| 20260505021004 | 75 | 147 | 2.0 | 8.0 | 0.00 | 0.00 | 0.00 | 59 | 1003.6 |
| 20260505020904 | 75 | 150 | 2.0 | 8.0 | 0.00 | 0.00 | 0.00 | 59 | 1003.7 |
| 20260505020804 | 75 | 152 | 1.0 | 8.0 | 0.00 | 0.00 | 0.00 | 59 | 1003.7 |
| 20260505020704 | 75 | 154 | 1.0 | 8.0 | 0.00 | 0.00 | 0.00 | 59 | 1003.8 |
| 20260505020604 | 75 | 153 | 1.0 | 5.0 | 0.00 | 0.00 | 0.00 | 59 | 1003.8 |
| 20260505020504 | 75 | 157 | 2.0 | 5.0 | 0.00 | 0.00 | 0.00 | 59 | 1003.8 |
| 20260505020404 | 75 | 162 | 2.0 | 5.0 | 0.00 | 0.00 | 0.00 | 59 | 1003.9 |
| 20260505020304 | 75 | 167 | 2.0 | 8.0 | 0.00 | 0.00 | 0.00 | 58 | 1003.9 |
| 20260505020104 | 75 | 171 | 2.0 | 8.0 | 0.00 | 0.00 | 0.00 | 58 | 1004.0 |
| 20260505020004 | 75 | 169 | 2.0 | 8.0 | 0.00 | 0.00 | 0.00 | 58 | 1003.9 |
| 20260505015904 | 75 | 168 | 2.0 | 8.0 | 0.00 | 0.00 | 0.00 | 58 | 1003.9 |
| 20260505015804 | 75 | 168 | 2.0 | 8.0 | 0.00 | 0.00 | 0.00 | 58 | 1003.9 |
| 20260505015704 | 75 | 166 | 2.0 | 8.0 | 0.00 | 0.00 | 0.00 | 58 | 1003.9 |
| 20260505015604 | 75 | 167 | 2.0 | 8.0 | 0.00 | 0.00 | 0.00 | 58 | 1003.9 |
| 20260505015404 | 75 | 165 | 2.0 | 8.0 | 0.00 | 0.00 | 0.00 | 57 | 1003.8 |
| 20260505015304 | 75 | 167 | 2.0 | 9.0 | 0.00 | 0.00 | 0.00 | 57 | 1003.8 |
| 20260505015105 | 75 | 163 | 2.0 | 9.0 | 0.00 | 0.00 | 0.00 | 57 | 1003.7 |
| 20260505015005 | 75 | 159 | 2.0 | 9.0 | 0.00 | 0.00 | 0.00 | 57 | 1003.7 |
| 20260505014904 | 75 | 155 | 2.0 | 9.0 | 0.00 | 0.00 | 0.00 | 57 | 1003.6 |
| 20260505014804 | 76 | 154 | 2.0 | 9.0 | 0.00 | 0.00 | 0.00 | 57 | 1003.6 |
| 20260505014704 | 76 | 154 | 2.0 | 9.0 | 0.00 | 0.00 | 0.00 | 57 | 1003.5 |
| 20260505014404 | 76 | 144 | 1.0 | 9.0 | 0.00 | 0.00 | 0.00 | 56 | 1003.3 |
| 20260505014304 | 76 | 139 | 1.0 | 5.0 | 0.00 | 0.00 | 0.00 | 56 | 1003.2 |
| 20260505014204 | 76 | 143 | 2.0 | 5.0 | 0.00 | 0.00 | 0.00 | 56 | 1003.1 |
| 20260505014104 | 76 | 145 | 2.0 | 5.0 | 0.00 | 0.00 | 0.00 | 56 | 1003.2 |
| 20260505014004 | 76 | 151 | 2.0 | 5.0 | 0.00 | 0.00 | 0.00 | 56 | 1003.2 |
| 20260505013904 | 76 | 154 | 2.0 | 5.0 | 0.00 | 0.00 | 0.00 | 56 | 1003.3 |
| 20260505013804 | 76 | 151 | 2.0 | 5.0 | 0.00 | 0.00 | 0.00 | 55 | 1003.4 |
| 20260505013704 | 76 | 152 | 2.0 | 6.0 | 0.00 | 0.00 | 0.00 | 55 | 1003.4 |
| 20260505013604 | 76 | 152 | 2.0 | 6.0 | 0.00 | 0.00 | 0.00 | 55 | 1003.4 |
| 20260505013504 | 76 | 151 | 2.0 | 6.0 | 0.00 | 0.00 | 0.00 | 55 | 1003.3 |
| 20260505013404 | 76 | 152 | 1.0 | 6.0 | 0.00 | 0.00 | 0.00 | 55 | 1003.3 |
| 20260505013204 | 76 | 141 | 1.0 | 6.0 | 0.00 | 0.00 | 0.00 | 55 | 1003.2 |
| 20260505013004 | 76 | 136 | 1.0 | 6.0 | 0.00 | 0.00 | 0.00 | 55 | 1003.0 |
| 20260505012904 | 76 | 137 | 1.0 | 6.0 | 0.00 | 0.00 | 0.00 | 54 | 1003.0 |
| 20260505012804 | 76 | 142 | 1.0 | 6.0 | 0.00 | 0.00 | 0.00 | 55 | 1003.0 |
| 20260505012704 | 76 | 141 | 2.0 | 5.0 | 0.00 | 0.00 | 0.00 | 54 | 1003.1 |
| 20260505012604 | 76 | 143 | 1.0 | 5.0 | 0.00 | 0.00 | 0.00 | 54 | 1003.0 |
| 20260505012504 | 76 | 144 | 2.0 | 5.0 | 0.00 | 0.00 | 0.00 | 54 | 1003.0 |
| 20260505012404 | 76 | 141 | 2.0 | 5.0 | 0.00 | 0.00 | 0.00 | 54 | 1003.0 |
| 20260505012304 | 76 | 142 | 2.0 | 5.0 | 0.00 | 0.00 | 0.00 | 54 | 1003.0 |
| 20260505012204 | 76 | 142 | 2.0 | 5.0 | 0.00 | 0.00 | 0.00 | 54 | 1003.0 |
| 20260505012105 | 76 | 142 | 2.0 | 5.0 | 0.00 | 0.00 | 0.00 | 54 | 1002.9 |
| 20260505012005 | 76 | 143 | 2.0 | 5.0 | 0.00 | 0.00 | 0.00 | 54 | 1002.7 |
| 20260505011905 | 76 | 146 | 2.0 | 8.0 | 0.00 | 0.00 | 0.00 | 53 | 1002.7 |
| 20260505011805 | 76 | 149 | 2.0 | 8.0 | 0.00 | 0.00 | 0.00 | 53 | 1002.7 |
| 20260505011705 | 76 | 150 | 2.0 | 8.0 | 0.00 | 0.00 | 0.00 | 53 | 1002.7 |
| 20260505011605 | 76 | 151 | 2.0 | 8.0 | 0.00 | 0.00 | 0.00 | 53 | 1002.7 |
| 20260505011506 | 76 | 151 | 2.0 | 8.0 | 0.00 | 0.00 | 0.00 | 53 | 1002.7 |
| 20260505011404 | 77 | 153 | 2.0 | 8.0 | 0.00 | 0.00 | 0.00 | 53 | 1002.7 |
| 20260505011305 | 77 | 151 | 2.0 | 8.0 | 0.00 | 0.00 | 0.00 | 53 | 1002.7 |
| 20260505011205 | 77 | 150 | 2.0 | 8.0 | 0.00 | 0.00 | 0.00 | 53 | 1002.7 |
| 20260505011105 | 77 | 150 | 2.0 | 8.0 | 0.00 | 0.00 | 0.00 | 53 | 1002.8 |
| 20260505011005 | 77 | 148 | 2.0 | 8.0 | 0.00 | 0.00 | 0.00 | 53 | 1002.7 |
| 20260505010905 | 77 | 145 | 2.0 | 7.0 | 0.00 | 0.00 | 0.00 | 53 | 1002.6 |
| 20260505010705 | 77 | 145 | 2.0 | 7.0 | 0.00 | 0.00 | 0.00 | 52 | 1002.6 |
| 20260505010605 | 77 | 147 | 2.0 | 7.0 | 0.00 | 0.00 | 0.00 | 52 | 1002.7 |
| 20260505010505 | 77 | 146 | 2.0 | 7.0 | 0.00 | 0.00 | 0.00 | 52 | 1002.6 |
| 20260505010305 | 77 | 145 | 2.0 | 7.0 | 0.00 | 0.00 | 0.00 | 52 | 1002.5 |
| 20260505010205 | 77 | 149 | 2.0 | 7.0 | 0.00 | 0.00 | 0.00 | 52 | 1002.5 |
| 20260505010105 | 77 | 146 | 2.0 | 7.0 | 0.00 | 0.00 | 0.00 | 52 | 1002.5 |
| 20260505010005 | 77 | 145 | 2.0 | 7.0 | 0.00 | 0.00 | 0.00 | 52 | 1002.5 |
| 20260505005905 | 77 | 146 | 2.0 | 7.0 | 0.00 | 0.00 | 0.00 | 52 | 1002.5 |
| 20260505005705 | 77 | 142 | 2.0 | 6.0 | 0.00 | 0.00 | 0.00 | 51 | 1002.5 |
| 20260505005605 | 77 | 137 | 2.0 | 6.0 | 0.00 | 0.00 | 0.00 | 51 | 1002.5 |
| 20260505005505 | 77 | 137 | 2.0 | 6.0 | 0.00 | 0.00 | 0.00 | 51 | 1002.5 |
| 20260505005405 | 78 | 138 | 2.0 | 6.0 | 0.00 | 0.00 | 0.00 | 51 | 1002.4 |
| 20260505005305 | 77 | 136 | 2.0 | 6.0 | 0.00 | 0.00 | 0.00 | 51 | 1002.5 |
| 20260505005104 | 78 | 132 | 2.0 | 6.0 | 0.00 | 0.00 | 0.00 | 51 | 1002.5 |
| 20260505005005 | 78 | 130 | 2.0 | 6.0 | 0.00 | 0.00 | 0.00 | 51 | 1002.5 |
| 20260505004905 | 78 | 129 | 2.0 | 6.0 | 0.00 | 0.00 | 0.00 | 51 | 1002.6 |
| 20260505004805 | 78 | 129 | 2.0 | 6.0 | 0.00 | 0.00 | 0.00 | 51 | 1002.5 |
| 20260505004705 | 78 | 129 | 2.0 | 5.0 | 0.00 | 0.00 | 0.00 | 50 | 1002.5 |
| 20260505004305 | 78 | 129 | 2.0 | 5.0 | 0.00 | 0.00 | 0.00 | 50 | 1002.6 |
| 20260505004004 | 78 | 137 | 2.0 | 7.0 | 0.00 | 0.00 | 0.00 | 50 | 1002.7 |
| 20260505003905 | 78 | 135 | 2.0 | 7.0 | 0.00 | 0.00 | 0.00 | 49 | 1002.7 |
| 20260505003804 | 78 | 138 | 2.0 | 7.0 | 0.00 | 0.00 | 0.00 | 49 | 1002.6 |
| 20260505003705 | 78 | 138 | 2.0 | 7.0 | 0.00 | 0.00 | 0.00 | 49 | 1002.6 |
| 20260505003605 | 78 | 139 | 2.0 | 7.0 | 0.00 | 0.00 | 0.00 | 49 | 1002.7 |
| 20260505003505 | 78 | 140 | 2.0 | 7.0 | 0.00 | 0.00 | 0.00 | 48 | 1002.7 |
| 20260505003404 | 78 | 144 | 2.0 | 7.0 | 0.00 | 0.00 | 0.00 | 48 | 1002.6 |
| 20260505003205 | 78 | 149 | 3.0 | 7.0 | 0.00 | 0.00 | 0.00 | 48 | 1002.6 |
| 20260505003105 | 78 | 155 | 3.0 | 7.0 | 0.00 | 0.00 | 0.00 | 48 | 1002.5 |
| 20260505003004 | 78 | 154 | 2.0 | 7.0 | 0.00 | 0.00 | 0.00 | 48 | 1002.6 |
| 20260505002805 | 79 | 154 | 2.0 | 7.0 | 0.00 | 0.00 | 0.00 | 47 | 1002.5 |
| 20260505002704 | 79 | 155 | 2.0 | 7.0 | 0.00 | 0.00 | 0.00 | 47 | 1002.5 |
| 20260505002605 | 79 | 158 | 2.0 | 7.0 | 0.00 | 0.00 | 0.00 | 48 | 1002.6 |
| 20260505002505 | 79 | 157 | 2.0 | 7.0 | 0.00 | 0.00 | 0.00 | 47 | 1002.6 |
| 20260505002405 | 79 | 155 | 2.0 | 7.0 | 0.00 | 0.00 | 0.00 | 47 | 1002.7 |
| 20260505002305 | 79 | 156 | 2.0 | 7.0 | 0.00 | 0.00 | 0.00 | 47 | 1002.6 |
| 20260505002205 | 79 | 154 | 2.0 | 7.0 | 0.00 | 0.00 | 0.00 | 47 | 1002.7 |
| 20260505002105 | 79 | 149 | 2.0 | 7.0 | 0.00 | 0.00 | 0.00 | 47 | 1002.7 |
| 20260505002005 | 79 | 152 | 2.0 | 8.0 | 0.00 | 0.00 | 0.00 | 47 | 1002.8 |
| 20260505001905 | 79 | 151 | 2.0 | 8.0 | 0.00 | 0.00 | 0.00 | 47 | 1002.8 |
| 20260505001804 | 79 | 150 | 2.0 | 8.0 | 0.00 | 0.00 | 0.00 | 47 | 1002.8 |
| 20260505001704 | 79 | 150 | 2.0 | 8.0 | 0.00 | 0.00 | 0.00 | 46 | 1002.8 |
| 20260505001504 | 79 | 148 | 2.0 | 8.0 | 0.00 | 0.00 | 0.00 | 47 | 1002.9 |
| 20260505001304 | 79 | 152 | 2.0 | 8.0 | 0.00 | 0.00 | 0.00 | 46 | 1002.9 |
| 20260505001005 | 79 | 147 | 2.0 | 7.0 | 0.00 | 0.00 | 0.00 | 46 | 1002.8 |
| 20260505000805 | 79 | 147 | 2.0 | 5.0 | 0.00 | 0.00 | 0.00 | 46 | 1002.9 |
| 20260505000705 | 79 | 145 | 2.0 | 6.0 | 0.00 | 0.00 | 0.00 | 46 | 1002.9 |
| 20260505000605 | 79 | 145 | 2.0 | 6.0 | 0.00 | 0.00 | 0.00 | 46 | 1003.0 |
| 20260505000504 | 80 | 144 | 2.0 | 6.0 | 0.00 | 0.00 | 0.00 | 46 | 1003.0 |
| 20260505000406 | 79 | 143 | 2.0 | 6.0 | 0.00 | 0.00 | 0.00 | 46 | 1003.0 |
| 20260505000305 | 80 | 138 | 2.0 | 6.0 | 0.00 | 0.00 | 0.00 | 46 | 1003.0 |
| 20260505000104 | 80 | 138 | 2.0 | 6.0 | 0.00 | 0.00 | 0.00 | 46 | 1003.0 |
| 20260504235804 | 80 | 144 | 2.0 | 6.0 | 0.00 | 0.00 | 0.00 | 46 | 1003.1 |
| 20260504235705 | 80 | 148 | 2.0 | 5.0 | 0.00 | 0.00 | 0.00 | 46 | 1003.1 |
| 20260504235605 | 80 | 150 | 2.0 | 5.0 | 0.00 | 0.00 | 0.00 | 46 | 1003.1 |
| 20260504235505 | 80 | 151 | 2.0 | 5.0 | 0.00 | 0.00 | 0.00 | 46 | 1003.1 |
| 20260504235405 | 80 | 155 | 2.0 | 8.0 | 0.00 | 0.00 | 0.00 | 46 | 1003.1 |
| 20260504235305 | 80 | 158 | 2.0 | 8.0 | 0.00 | 0.00 | 0.00 | 46 | 1003.1 |
| 20260504235205 | 80 | 154 | 2.0 | 8.0 | 0.00 | 0.00 | 0.00 | 46 | 1003.1 |
| 20260504235105 | 80 | 153 | 2.0 | 8.0 | 0.00 | 0.00 | 0.00 | 46 | 1003.1 |
| 20260504235005 | 80 | 151 | 2.0 | 8.0 | 0.00 | 0.00 | 0.00 | 46 | 1003.1 |
| 20260504234905 | 80 | 152 | 3.0 | 8.0 | 0.00 | 0.00 | 0.00 | 46 | 1003.2 |
| 20260504234805 | 80 | 152 | 3.0 | 8.0 | 0.00 | 0.00 | 0.00 | 46 | 1003.1 |
| 20260504234605 | 80 | 158 | 3.0 | 8.0 | 0.00 | 0.00 | 0.00 | 46 | 1003.1 |
| 20260504234505 | 80 | 161 | 3.0 | 10.0 | 0.00 | 0.00 | 0.00 | 46 | 1003.1 |
| 20260504234305 | 80 | 156 | 4.0 | 10.0 | 0.00 | 0.00 | 0.00 | 45 | 1003.1 |
| 20260504234205 | 80 | 160 | 4.0 | 10.0 | 0.00 | 0.00 | 0.00 | 46 | 1003.2 |
| 20260504234005 | 80 | 167 | 4.0 | 10.0 | 0.00 | 0.00 | 0.00 | 45 | 1003.2 |
| 20260504233705 | 80 | 165 | 4.0 | 10.0 | 0.00 | 0.00 | 0.00 | 45 | 1003.2 |
| 20260504233605 | 80 | 162 | 4.0 | 10.0 | 0.00 | 0.00 | 0.00 | 45 | 1003.1 |
| 20260504233505 | 80 | 160 | 4.0 | 10.0 | 0.00 | 0.00 | 0.00 | 46 | 1003.2 |
| 20260504233405 | 80 | 160 | 4.0 | 10.0 | 0.00 | 0.00 | 0.00 | 45 | 1003.1 |
| 20260504233305 | 80 | 162 | 4.0 | 10.0 | 0.00 | 0.00 | 0.00 | 45 | 1003.1 |
| 20260504233205 | 80 | 164 | 4.0 | 10.0 | 0.00 | 0.00 | 0.00 | 45 | 1003.1 |
| 20260504233105 | 80 | 164 | 4.0 | 10.0 | 0.00 | 0.00 | 0.00 | 45 | 1003.1 |
| 20260504233005 | 80 | 161 | 3.0 | 10.0 | 0.00 | 0.00 | 0.00 | 45 | 1003.1 |
| 20260504232905 | 80 | 160 | 3.0 | 10.0 | 0.00 | 0.00 | 0.00 | 45 | 1003.1 |
| 20260504232805 | 80 | 165 | 3.0 | 11.0 | 0.00 | 0.00 | 0.00 | 45 | 1003.2 |
| 20260504232605 | 80 | 170 | 3.0 | 11.0 | 0.00 | 0.00 | 0.00 | 45 | 1003.1 |
| 20260504232505 | 81 | 169 | 3.0 | 11.0 | 0.00 | 0.00 | 0.00 | 45 | 1003.1 |
| 20260504232405 | 81 | 169 | 4.0 | 11.0 | 0.00 | 0.00 | 0.00 | 45 | 1003.1 |
| 20260504232305 | 81 | 170 | 3.0 | 11.0 | 0.00 | 0.00 | 0.00 | 45 | 1003.1 |
| 20260504232205 | 81 | 170 | 3.0 | 11.0 | 0.00 | 0.00 | 0.00 | 46 | 1003.1 |
| 20260504232105 | 81 | 170 | 3.0 | 11.0 | 0.00 | 0.00 | 0.00 | 46 | 1003.1 |
| 20260504232005 | 81 | 168 | 4.0 | 11.0 | 0.00 | 0.00 | 0.00 | 45 | 1003.1 |
| 20260504231905 | 81 | 168 | 3.0 | 11.0 | 0.00 | 0.00 | 0.00 | 45 | 1003.2 |
| 20260504231805 | 81 | 164 | 3.0 | 9.0 | 0.00 | 0.00 | 0.00 | 45 | 1003.1 |
| 20260504231705 | 81 | 161 | 3.0 | 9.0 | 0.00 | 0.00 | 0.00 | 45 | 1003.1 |
| 20260504231605 | 81 | 158 | 3.0 | 9.0 | 0.00 | 0.00 | 0.00 | 45 | 1003.1 |
| 20260504231505 | 81 | 160 | 3.0 | 9.0 | 0.00 | 0.00 | 0.00 | 45 | 1003.1 |
| 20260504231405 | 81 | 158 | 3.0 | 9.0 | 0.00 | 0.00 | 0.00 | 44 | 1003.0 |
| 20260504231305 | 81 | 154 | 3.0 | 9.0 | 0.00 | 0.00 | 0.00 | 45 | 1003.0 |
| 20260504231105 | 81 | 153 | 3.0 | 10.0 | 0.00 | 0.00 | 0.00 | 45 | 1003.0 |
| 20260504231005 | 81 | 154 | 3.0 | 10.0 | 0.00 | 0.00 | 0.00 | 45 | 1003.0 |
| 20260504230905 | 81 | 158 | 3.0 | 14.0 | 0.00 | 0.00 | 0.00 | 45 | 1003.0 |
| 20260504230805 | 81 | 160 | 3.0 | 14.0 | 0.00 | 0.00 | 0.00 | 44 | 1003.0 |
| 20260504230704 | 81 | 159 | 3.0 | 14.0 | 0.00 | 0.00 | 0.00 | 44 | 1002.9 |
| 20260504230605 | 81 | 164 | 4.0 | 14.0 | 0.00 | 0.00 | 0.00 | 45 | 1003.0 |
| 20260504230404 | 81 | 167 | 4.0 | 14.0 | 0.00 | 0.00 | 0.00 | 45 | 1002.9 |
| 20260504230204 | 82 | 167 | 4.0 | 14.0 | 0.00 | 0.00 | 0.00 | 45 | 1002.9 |
| 20260504230005 | 82 | 167 | 4.0 | 14.0 | 0.00 | 0.00 | 0.00 | 44 | 1002.9 |
| 20260504225905 | 82 | 166 | 4.0 | 10.0 | 0.00 | 0.00 | 0.00 | 44 | 1002.9 |
| 20260504225805 | 82 | 167 | 4.0 | 10.0 | 0.00 | 0.00 | 0.00 | 44 | 1002.9 |
| 20260504225705 | 82 | 169 | 5.0 | 10.0 | 0.00 | 0.00 | 0.00 | 44 | 1003.0 |
| 20260504225604 | 82 | 171 | 5.0 | 10.0 | 0.00 | 0.00 | 0.00 | 43 | 1003.0 |
| 20260504225504 | 82 | 176 | 4.0 | 11.0 | 0.00 | 0.00 | 0.00 | 43 | 1003.0 |
| 20260504225405 | 82 | 174 | 4.0 | 12.0 | 0.00 | 0.00 | 0.00 | 44 | 1003.0 |
| 20260504225305 | 82 | 174 | 4.0 | 12.0 | 0.00 | 0.00 | 0.00 | 43 | 1003.0 |
| 20260504225205 | 82 | 171 | 4.0 | 12.0 | 0.00 | 0.00 | 0.00 | 44 | 1003.0 |
| 20260504224805 | 82 | 165 | 4.0 | 12.0 | 0.00 | 0.00 | 0.00 | 44 | 1003.0 |
| 20260504224705 | 82 | 163 | 3.0 | 12.0 | 0.00 | 0.00 | 0.00 | 43 | 1003.0 |
| 20260504224505 | 82 | 156 | 3.0 | 12.0 | 0.00 | 0.00 | 0.00 | 43 | 1003.0 |
| 20260504224305 | 82 | 160 | 4.0 | 10.0 | 0.00 | 0.00 | 0.00 | 43 | 1002.9 |
| 20260504224205 | 82 | 162 | 4.0 | 10.0 | 0.00 | 0.00 | 0.00 | 44 | 1002.9 |
| 20260504224105 | 82 | 163 | 4.0 | 10.0 | 0.00 | 0.00 | 0.00 | 43 | 1002.9 |
| 20260504223805 | 82 | 165 | 4.0 | 10.0 | 0.00 | 0.00 | 0.00 | 44 | 1002.9 |
| 20260504223705 | 82 | 165 | 4.0 | 10.0 | 0.00 | 0.00 | 0.00 | 42 | 1002.9 |
| 20260504223605 | 82 | 164 | 4.0 | 10.0 | 0.00 | 0.00 | 0.00 | 43 | 1003.0 |
| 20260504223505 | 82 | 162 | 4.0 | 10.0 | 0.00 | 0.00 | 0.00 | 43 | 1003.0 |
| 20260504223405 | 82 | 159 | 4.0 | 10.0 | 0.00 | 0.00 | 0.00 | 42 | 1003.0 |
| 20260504223305 | 82 | 158 | 4.0 | 10.0 | 0.00 | 0.00 | 0.00 | 42 | 1002.9 |
| 20260504223205 | 83 | 162 | 4.0 | 11.0 | 0.00 | 0.00 | 0.00 | 42 | 1003.0 |
| 20260504223104 | 83 | 163 | 5.0 | 11.0 | 0.00 | 0.00 | 0.00 | 42 | 1002.9 |
| 20260504222905 | 83 | 175 | 5.0 | 15.0 | 0.00 | 0.00 | 0.00 | 43 | 1002.9 |
| 20260504222805 | 83 | 177 | 5.0 | 15.0 | 0.00 | 0.00 | 0.00 | 43 | 1003.0 |
| 20260504222705 | 83 | 181 | 5.0 | 15.0 | 0.00 | 0.00 | 0.00 | 42 | 1002.9 |
| 20260504222605 | 83 | 182 | 5.0 | 15.0 | 0.00 | 0.00 | 0.00 | 42 | 1002.9 |
| 20260504222505 | 83 | 183 | 5.0 | 15.0 | 0.00 | 0.00 | 0.00 | 42 | 1002.9 |
| 20260504222405 | 83 | 186 | 5.0 | 15.0 | 0.00 | 0.00 | 0.00 | 42 | 1002.8 |
| 20260504222305 | 83 | 187 | 5.0 | 15.0 | 0.00 | 0.00 | 0.00 | 42 | 1002.9 |
| 20260504222105 | 83 | 184 | 4.0 | 15.0 | 0.00 | 0.00 | 0.00 | 41 | 1002.7 |
| 20260504222005 | 83 | 181 | 4.0 | 15.0 | 0.00 | 0.00 | 0.00 | 41 | 1002.8 |
| 20260504221904 | 83 | 171 | 4.0 | 15.0 | 0.00 | 0.00 | 0.00 | 42 | 1002.9 |
| 20260504221805 | 83 | 168 | 4.0 | 15.0 | 0.00 | 0.00 | 0.00 | 42 | 1002.9 |
| 20260504221704 | 83 | 167 | 4.0 | 10.0 | 0.00 | 0.00 | 0.00 | 42 | 1002.9 |
| 20260504221604 | 83 | 166 | 4.0 | 10.0 | 0.00 | 0.00 | 0.00 | 42 | 1002.9 |
| 20260504221504 | 83 | 165 | 4.0 | 10.0 | 0.00 | 0.00 | 0.00 | 42 | 1002.9 |
| 20260504221405 | 83 | 168 | 5.0 | 10.0 | 0.00 | 0.00 | 0.00 | 41 | 1002.9 |
| 20260504221104 | 83 | 172 | 5.0 | 12.0 | 0.00 | 0.00 | 0.00 | 41 | 1002.9 |
| 20260504220904 | 84 | 176 | 5.0 | 12.0 | 0.00 | 0.00 | 0.00 | 41 | 1002.9 |
| 20260504220804 | 84 | 174 | 5.0 | 12.0 | 0.00 | 0.00 | 0.00 | 41 | 1002.9 |
| 20260504220704 | 84 | 171 | 5.0 | 12.0 | 0.00 | 0.00 | 0.00 | 41 | 1003.0 |
| 20260504220604 | 84 | 174 | 5.0 | 12.0 | 0.00 | 0.00 | 0.00 | 40 | 1002.9 |
| 20260504220504 | 84 | 175 | 5.0 | 12.0 | 0.00 | 0.00 | 0.00 | 39 | 1002.8 |
| 20260504220304 | 84 | 173 | 5.0 | 12.0 | 0.00 | 0.00 | 0.00 | 40 | 1002.9 |
| 20260504220204 | 84 | 173 | 5.0 | 13.0 | 0.00 | 0.00 | 0.00 | 39 | 1003.0 |
| 20260504220104 | 84 | 170 | 4.0 | 13.0 | 0.00 | 0.00 | 0.00 | 39 | 1003.0 |
| 20260504215904 | 85 | 168 | 4.0 | 13.0 | 0.00 | 0.00 | 0.00 | 40 | 1002.9 |
| 20260504215804 | 85 | 172 | 4.0 | 13.0 | 0.00 | 0.00 | 0.00 | 41 | 1003.0 |
| 20260504215604 | 85 | 171 | 5.0 | 13.0 | 0.00 | 0.00 | 0.00 | 39 | 1003.0 |
| 20260504215504 | 85 | 174 | 4.0 | 13.0 | 0.00 | 0.00 | 0.00 | 40 | 1003.0 |
| 20260504215305 | 85 | 171 | 4.0 | 13.0 | 0.00 | 0.00 | 0.00 | 40 | 1003.0 |
| 20260504215105 | 85 | 176 | 4.0 | 11.0 | 0.00 | 0.00 | 0.00 | 39 | 1003.0 |
| 20260504214904 | 85 | 175 | 4.0 | 11.0 | 0.00 | 0.00 | 0.00 | 40 | 1003.1 |
| 20260504214804 | 85 | 174 | 5.0 | 11.0 | 0.00 | 0.00 | 0.00 | 40 | 1003.1 |
| 20260504214704 | 85 | 171 | 5.0 | 11.0 | 0.00 | 0.00 | 0.00 | 40 | 1003.1 |
| 20260504214604 | 85 | 172 | 5.0 | 11.0 | 0.00 | 0.00 | 0.00 | 40 | 1003.1 |
| 20260504214405 | 85 | 165 | 5.0 | 12.0 | 0.00 | 0.00 | 0.00 | 40 | 1003.1 |
| 20260504214305 | 85 | 161 | 4.0 | 12.0 | 0.00 | 0.00 | 0.00 | 39 | 1003.1 |
| 20260504214104 | 85 | 161 | 4.0 | 12.0 | 0.00 | 0.00 | 0.00 | 39 | 1003.1 |
| 20260504214005 | 85 | 164 | 4.0 | 12.0 | 0.00 | 0.00 | 0.00 | 39 | 1003.0 |
| 20260504213804 | 85 | 169 | 5.0 | 12.0 | 0.00 | 0.00 | 0.00 | 40 | 1003.1 |
| 20260504213704 | 85 | 172 | 5.0 | 13.0 | 0.00 | 0.00 | 0.00 | 39 | 1003.1 |
| 20260504213604 | 85 | 174 | 5.0 | 13.0 | 0.00 | 0.00 | 0.00 | 40 | 1003.1 |
| 20260504213504 | 85 | 175 | 6.0 | 13.0 | 0.00 | 0.00 | 0.00 | 39 | 1003.2 |
| 20260504213305 | 85 | 181 | 6.0 | 13.0 | 0.00 | 0.00 | 0.00 | 38 | 1003.1 |
| 20260504213204 | 85 | 182 | 6.0 | 13.0 | 0.00 | 0.00 | 0.00 | 38 | 1003.2 |
| 20260504213104 | 85 | 181 | 6.0 | 13.0 | 0.00 | 0.00 | 0.00 | 38 | 1003.1 |
| 20260504212904 | 86 | 174 | 5.0 | 13.0 | 0.00 | 0.00 | 0.00 | 38 | 1003.1 |
| 20260504212804 | 86 | 173 | 5.0 | 13.0 | 0.00 | 0.00 | 0.00 | 37 | 1003.1 |
| 20260504212405 | 87 | 170 | 4.0 | 10.0 | 0.00 | 0.00 | 0.00 | 37 | 1003.1 |
| 20260504212305 | 87 | 170 | 4.0 | 10.0 | 0.00 | 0.00 | 0.00 | 36 | 1003.2 |
| 20260504212205 | 87 | 163 | 4.0 | 10.0 | 0.00 | 0.00 | 0.00 | 36 | 1003.1 |
| 20260504212104 | 87 | 162 | 4.0 | 10.0 | 0.00 | 0.00 | 0.00 | 37 | 1003.1 |
| 20260504212004 | 87 | 166 | 4.0 | 10.0 | 0.00 | 0.00 | 0.00 | 36 | 1003.2 |
| 20260504211905 | 87 | 163 | 3.0 | 10.0 | 0.00 | 0.00 | 0.00 | 35 | 1003.1 |
| 20260504211705 | 87 | 160 | 3.0 | 10.0 | 0.00 | 0.00 | 0.00 | 35 | 1003.2 |
| 20260504211604 | 87 | 162 | 3.0 | 10.0 | 0.00 | 0.00 | 0.00 | 36 | 1003.2 |
| 20260504211404 | 87 | 178 | 4.0 | 14.0 | 0.00 | 0.00 | 0.00 | 35 | 1003.2 |
| 20260504211304 | 87 | 186 | 4.0 | 14.0 | 0.00 | 0.00 | 0.00 | 36 | 1003.2 |
| 20260504211105 | 87 | 193 | 4.0 | 14.0 | 0.00 | 0.00 | 0.00 | 35 | 1003.2 |
| 20260504211004 | 87 | 192 | 4.0 | 14.0 | 0.00 | 0.00 | 0.00 | 34 | 1003.2 |
| 20260504210904 | 87 | 192 | 4.0 | 14.0 | 0.00 | 0.00 | 0.00 | 35 | 1003.2 |
| 20260504210804 | 87 | 194 | 4.0 | 14.0 | 0.00 | 0.00 | 0.00 | 34 | 1003.3 |
| 20260504210704 | 87 | 194 | 4.0 | 14.0 | 0.00 | 0.00 | 0.00 | 34 | 1003.3 |
| 20260504210504 | 87 | 191 | 3.0 | 14.0 | 0.00 | 0.00 | 0.00 | 32 | 1003.3 |
| 20260504210405 | 88 | 175 | 3.0 | 9.0 | 0.00 | 0.00 | 0.00 | 33 | 1003.3 |
| 20260504210304 | 88 | 164 | 3.0 | 7.0 | 0.00 | 0.00 | 0.00 | 33 | 1003.3 |
| 20260504210204 | 88 | 155 | 3.0 | 7.0 | 0.00 | 0.00 | 0.00 | 34 | 1003.3 |
| 20260504210104 | 88 | 152 | 3.0 | 7.0 | 0.00 | 0.00 | 0.00 | 34 | 1003.3 |
| 20260504210005 | 88 | 150 | 3.0 | 7.0 | 0.00 | 0.00 | 0.00 | 33 | 1003.3 |
| 20260504205904 | 88 | 147 | 3.0 | 6.0 | 0.00 | 0.00 | 0.00 | 34 | 1003.3 |
| 20260504205805 | 88 | 148 | 3.0 | 7.0 | 0.00 | 0.00 | 0.00 | 33 | 1003.4 |
| 20260504205604 | 88 | 144 | 3.0 | 7.0 | 0.00 | 0.00 | 0.00 | 33 | 1003.4 |
| 20260504205504 | 88 | 143 | 3.0 | 7.0 | 0.00 | 0.00 | 0.00 | 33 | 1003.4 |
| 20260504205404 | 88 | 143 | 2.0 | 7.0 | 0.00 | 0.00 | 0.00 | 33 | 1003.4 |
| 20260504205305 | 88 | 144 | 2.0 | 7.0 | 0.00 | 0.00 | 0.00 | 33 | 1003.4 |
| 20260504205205 | 88 | 147 | 3.0 | 7.0 | 0.00 | 0.00 | 0.00 | 34 | 1003.4 |
| 20260504205104 | 88 | 143 | 2.0 | 7.0 | 0.00 | 0.00 | 0.00 | 34 | 1003.4 |
| 20260504205005 | 88 | 144 | 2.0 | 7.0 | 0.00 | 0.00 | 0.00 | 34 | 1003.5 |
| 20260504204905 | 88 | 145 | 2.0 | 7.0 | 0.00 | 0.00 | 0.00 | 33 | 1003.4 |
| 20260504204804 | 88 | 140 | 2.0 | 6.0 | 0.00 | 0.00 | 0.00 | 33 | 1003.5 |
| 20260504204704 | 88 | 139 | 2.0 | 6.0 | 0.00 | 0.00 | 0.00 | 33 | 1003.5 |
| 20260504204604 | 88 | 140 | 2.0 | 6.0 | 0.00 | 0.00 | 0.00 | 32 | 1003.5 |
| 20260504204504 | 88 | 142 | 2.0 | 6.0 | 0.00 | 0.00 | 0.00 | 34 | 1003.5 |
| 20260504204404 | 88 | 151 | 2.0 | 6.0 | 0.00 | 0.00 | 0.00 | 34 | 1003.6 |
| 20260504204304 | 88 | 151 | 2.0 | 6.0 | 0.00 | 0.00 | 0.00 | 34 | 1003.5 |
| 20260504204204 | 88 | 150 | 2.0 | 6.0 | 0.00 | 0.00 | 0.00 | 33 | 1003.6 |
| 20260504204105 | 88 | 152 | 2.0 | 5.0 | 0.00 | 0.00 | 0.00 | 34 | 1003.5 |
| 20260504204004 | 88 | 154 | 2.0 | 5.0 | 0.00 | 0.00 | 0.00 | 34 | 1003.6 |
| 20260504203804 | 88 | 164 | 2.0 | 6.0 | 0.00 | 0.00 | 0.00 | 34 | 1003.6 |
| 20260504203704 | 88 | 169 | 2.0 | 6.0 | 0.00 | 0.00 | 0.00 | 34 | 1003.6 |
| 20260504203604 | 88 | 172 | 2.0 | 6.0 | 0.00 | 0.00 | 0.00 | 34 | 1003.6 |
| 20260504203504 | 88 | 174 | 2.0 | 7.0 | 0.00 | 0.00 | 0.00 | 33 | 1003.7 |
| 20260504203405 | 87 | 175 | 3.0 | 7.0 | 0.00 | 0.00 | 0.00 | 34 | 1003.6 |
| 20260504203104 | 87 | 179 | 3.0 | 11.0 | 0.00 | 0.00 | 0.00 | 34 | 1003.7 |
| 20260504203004 | 87 | 179 | 3.0 | 11.0 | 0.00 | 0.00 | 0.00 | 33 | 1003.7 |
| 20260504202904 | 87 | 182 | 3.0 | 11.0 | 0.00 | 0.00 | 0.00 | 34 | 1003.7 |
| 20260504202804 | 86 | 184 | 3.0 | 11.0 | 0.00 | 0.00 | 0.00 | 34 | 1003.7 |
| 20260504202704 | 86 | 183 | 3.0 | 11.0 | 0.00 | 0.00 | 0.00 | 34 | 1003.7 |
| 20260504202604 | 86 | 183 | 3.0 | 11.0 | 0.00 | 0.00 | 0.00 | 33 | 1003.8 |
| 20260504202404 | 86 | 179 | 3.0 | 11.0 | 0.00 | 0.00 | 0.00 | 34 | 1003.8 |
| 20260504202305 | 87 | 178 | 3.0 | 11.0 | 0.00 | 0.00 | 0.00 | 33 | 1003.8 |
| 20260504202204 | 86 | 178 | 3.0 | 11.0 | 0.00 | 0.00 | 0.00 | 35 | 1003.9 |
| 20260504202104 | 86 | 183 | 4.0 | 11.0 | 0.00 | 0.00 | 0.00 | 34 | 1004.0 |
| 20260504202004 | 86 | 185 | 3.0 | 11.0 | 0.00 | 0.00 | 0.00 | 34 | 1003.9 |
| 20260504201904 | 86 | 183 | 3.0 | 7.0 | 0.00 | 0.00 | 0.00 | 35 | 1003.9 |
| 20260504201604 | 86 | 188 | 4.0 | 7.0 | 0.00 | 0.00 | 0.00 | 34 | 1004.0 |
| 20260504201504 | 86 | 191 | 4.0 | 7.0 | 0.00 | 0.00 | 0.00 | 36 | 1004.0 |
| 20260504201404 | 86 | 189 | 4.0 | 7.0 | 0.00 | 0.00 | 0.00 | 35 | 1004.0 |
| 20260504201304 | 86 | 192 | 4.0 | 9.0 | 0.00 | 0.00 | 0.00 | 34 | 1004.1 |
| 20260504201204 | 86 | 194 | 4.0 | 9.0 | 0.00 | 0.00 | 0.00 | 35 | 1004.1 |
| 20260504200904 | 86 | 182 | 4.0 | 9.0 | 0.00 | 0.00 | 0.00 | 35 | 1004.1 |
| 20260504200805 | 86 | 177 | 4.0 | 9.0 | 0.00 | 0.00 | 0.00 | 34 | 1004.1 |
| 20260504200705 | 86 | 175 | 3.0 | 9.0 | 0.00 | 0.00 | 0.00 | 34 | 1004.1 |
| 20260504200505 | 86 | 163 | 3.0 | 9.0 | 0.00 | 0.00 | 0.00 | 36 | 1004.2 |
| 20260504200405 | 86 | 161 | 3.0 | 9.0 | 0.00 | 0.00 | 0.00 | 34 | 1004.2 |
| 20260504200305 | 86 | 153 | 3.0 | 8.0 | 0.00 | 0.00 | 0.00 | 35 | 1004.2 |
| 20260504200205 | 86 | 139 | 3.0 | 8.0 | 0.00 | 0.00 | 0.00 | 34 | 1004.2 |
| 20260504200105 | 86 | 124 | 2.0 | 7.0 | 0.00 | 0.00 | 0.00 | 34 | 1004.2 |
| 20260504195905 | 86 | 118 | 2.0 | 7.0 | 0.00 | 0.00 | 0.00 | 36 | 1004.3 |
| 20260504195805 | 86 | 114 | 2.0 | 7.0 | 0.00 | 0.00 | 0.00 | 37 | 1004.3 |
| 20260504195704 | 86 | 107 | 2.0 | 7.0 | 0.00 | 0.00 | 0.00 | 35 | 1004.3 |
| 20260504195604 | 86 | 105 | 2.0 | 7.0 | 0.00 | 0.00 | 0.00 | 36 | 1004.3 |
| 20260504195505 | 86 | 104 | 2.0 | 7.0 | 0.00 | 0.00 | 0.00 | 35 | 1004.4 |
| 20260504195404 | 86 | 105 | 2.0 | 7.0 | 0.00 | 0.00 | 0.00 | 37 | 1004.4 |
| 20260504195304 | 86 | 106 | 2.0 | 7.0 | 0.00 | 0.00 | 0.00 | 37 | 1004.4 |
| 20260504195204 | 86 | 111 | 2.0 | 6.0 | 0.00 | 0.00 | 0.00 | 36 | 1004.4 |
| 20260504195104 | 86 | 123 | 2.0 | 5.0 | 0.00 | 0.00 | 0.00 | 36 | 1004.4 |
| 20260504195005 | 86 | 132 | 2.0 | 5.0 | 0.00 | 0.00 | 0.00 | 36 | 1004.4 |
| 20260504194804 | 85 | 149 | 2.0 | 6.0 | 0.00 | 0.00 | 0.00 | 35 | 1004.5 |
| 20260504194704 | 85 | 166 | 2.0 | 9.0 | 0.00 | 0.00 | 0.00 | 36 | 1004.5 |
| 20260504194604 | 85 | 177 | 2.0 | 9.0 | 0.00 | 0.00 | 0.00 | 35 | 1004.6 |
| 20260504194504 | 85 | 182 | 2.0 | 9.0 | 0.00 | 0.00 | 0.00 | 36 | 1004.6 |
| 20260504194205 | 85 | 168 | 2.0 | 9.0 | 0.00 | 0.00 | 0.00 | 38 | 1004.6 |
| 20260504194104 | 85 | 160 | 2.0 | 9.0 | 0.00 | 0.00 | 0.00 | 38 | 1004.6 |
| 20260504193904 | 85 | 154 | 2.0 | 9.0 | 0.00 | 0.00 | 0.00 | 36 | 1004.6 |
| 20260504193804 | 85 | 149 | 2.0 | 9.0 | 0.00 | 0.00 | 0.00 | 37 | 1004.6 |
| 20260504193704 | 84 | 134 | 2.0 | 5.0 | 0.00 | 0.00 | 0.00 | 37 | 1004.6 |
| 20260504193605 | 84 | 141 | 2.0 | 7.0 | 0.00 | 0.00 | 0.00 | 37 | 1004.6 |
| 20260504193504 | 84 | 146 | 2.0 | 7.0 | 0.00 | 0.00 | 0.00 | 36 | 1004.6 |
| 20260504193305 | 84 | 163 | 2.0 | 7.0 | 0.00 | 0.00 | 0.00 | 38 | 1004.7 |
| 20260504193204 | 84 | 178 | 2.0 | 7.0 | 0.00 | 0.00 | 0.00 | 36 | 1004.7 |
| 20260504193104 | 84 | 188 | 3.0 | 7.0 | 0.00 | 0.00 | 0.00 | 38 | 1004.8 |
| 20260504193005 | 84 | 195 | 3.0 | 7.0 | 0.00 | 0.00 | 0.00 | 36 | 1004.8 |
| 20260504192905 | 84 | 195 | 3.0 | 7.0 | 0.00 | 0.00 | 0.00 | 38 | 1004.8 |
| 20260504192705 | 84 | 193 | 3.0 | 7.0 | 0.00 | 0.00 | 0.00 | 36 | 1004.9 |
| 20260504192604 | 84 | 191 | 3.0 | 7.0 | 0.00 | 0.00 | 0.00 | 37 | 1004.9 |
| 20260504192504 | 84 | 191 | 3.0 | 7.0 | 0.00 | 0.00 | 0.00 | 38 | 1004.9 |
| 20260504192305 | 84 | 189 | 3.0 | 7.0 | 0.00 | 0.00 | 0.00 | 36 | 1004.9 |
| 20260504192204 | 84 | 189 | 3.0 | 7.0 | 0.00 | 0.00 | 0.00 | 37 | 1004.9 |
| 20260504192104 | 84 | 194 | 3.0 | 7.0 | 0.00 | 0.00 | 0.00 | 37 | 1004.9 |
| 20260504191905 | 83 | 203 | 3.0 | 7.0 | 0.00 | 0.00 | 0.00 | 38 | 1005.0 |
| 20260504191805 | 83 | 204 | 3.0 | 7.0 | 0.00 | 0.00 | 0.00 | 39 | 1005.0 |
| 20260504191705 | 83 | 204 | 3.0 | 7.0 | 0.00 | 0.00 | 0.00 | 37 | 1005.0 |
| 20260504191605 | 83 | 200 | 3.0 | 7.0 | 0.00 | 0.00 | 0.00 | 37 | 1005.1 |
| 20260504191505 | 83 | 200 | 3.0 | 7.0 | 0.00 | 0.00 | 0.00 | 37 | 1005.1 |
| 20260504191404 | 83 | 202 | 2.0 | 7.0 | 0.00 | 0.00 | 0.00 | 38 | 1005.1 |
| 20260504191305 | 83 | 200 | 2.0 | 7.0 | 0.00 | 0.00 | 0.00 | 40 | 1005.1 |
| 20260504191205 | 83 | 192 | 2.0 | 7.0 | 0.00 | 0.00 | 0.00 | 37 | 1005.1 |
| 20260504191104 | 83 | 179 | 2.0 | 7.0 | 0.00 | 0.00 | 0.00 | 38 | 1005.1 |
| 20260504191004 | 83 | 166 | 2.0 | 5.0 | 0.00 | 0.00 | 0.00 | 39 | 1005.2 |
| 20260504190904 | 83 | 165 | 2.0 | 5.0 | 0.00 | 0.00 | 0.00 | 38 | 1005.2 |
| 20260504190804 | 83 | 163 | 2.0 | 5.0 | 0.00 | 0.00 | 0.00 | 38 | 1005.2 |
| 20260504190705 | 83 | 159 | 2.0 | 5.0 | 0.00 | 0.00 | 0.00 | 37 | 1005.2 |
| 20260504190604 | 83 | 159 | 2.0 | 5.0 | 0.00 | 0.00 | 0.00 | 38 | 1005.2 |
| 20260504190504 | 83 | 164 | 2.0 | 6.0 | 0.00 | 0.00 | 0.00 | 39 | 1005.2 |
| 20260504190404 | 83 | 165 | 2.0 | 6.0 | 0.00 | 0.00 | 0.00 | 40 | 1005.2 |
| 20260504190305 | 83 | 169 | 2.0 | 6.0 | 0.00 | 0.00 | 0.00 | 40 | 1005.3 |
| 20260504190205 | 83 | 171 | 2.0 | 6.0 | 0.00 | 0.00 | 0.00 | 38 | 1005.3 |
| 20260504190104 | 83 | 170 | 2.0 | 6.0 | 0.00 | 0.00 | 0.00 | 39 | 1005.3 |
| 20260504190004 | 83 | 167 | 2.0 | 6.0 | 0.00 | 0.00 | 0.00 | 41 | 1005.3 |
| 20260504185904 | 82 | 160 | 2.0 | 6.0 | 0.00 | 0.00 | 0.00 | 39 | 1005.3 |
| 20260504185804 | 82 | 157 | 2.0 | 6.0 | 0.00 | 0.00 | 0.00 | 39 | 1005.3 |
| 20260504185704 | 82 | 157 | 2.0 | 6.0 | 0.00 | 0.00 | 0.00 | 37 | 1005.3 |
| 20260504185505 | 83 | 146 | 2.0 | 5.0 | 0.00 | 0.00 | 0.00 | 40 | 1005.3 |
| 20260504185405 | 83 | 144 | 2.0 | 5.0 | 0.00 | 0.00 | 0.00 | 39 | 1005.3 |
| 20260504185305 | 83 | 140 | 1.0 | 5.0 | 0.00 | 0.00 | 0.00 | 40 | 1005.3 |
| 20260504185205 | 83 | 138 | 1.0 | 4.0 | 0.00 | 0.00 | 0.00 | 39 | 1005.2 |
| 20260504185104 | 83 | 139 | 1.0 | 5.0 | 0.00 | 0.00 | 0.00 | 37 | 1005.3 |
| 20260504185005 | 83 | 147 | 1.0 | 5.0 | 0.00 | 0.00 | 0.00 | 38 | 1005.2 |
| 20260504184904 | 83 | 153 | 1.0 | 5.0 | 0.00 | 0.00 | 0.00 | 39 | 1005.2 |
| 20260504184806 | 82 | 162 | 1.0 | 5.0 | 0.00 | 0.00 | 0.00 | 41 | 1005.3 |
| 20260504184704 | 82 | 168 | 1.0 | 5.0 | 0.00 | 0.00 | 0.00 | 41 | 1005.2 |
| 20260504184405 | 82 | 173 | 2.0 | 5.0 | 0.00 | 0.00 | 0.00 | 40 | 1005.4 |
| 20260504184305 | 82 | 171 | 2.0 | 5.0 | 0.00 | 0.00 | 0.00 | 39 | 1005.4 |
| 20260504184205 | 82 | 165 | 2.0 | 5.0 | 0.00 | 0.00 | 0.00 | 40 | 1005.5 |
| 20260504184104 | 82 | 161 | 2.0 | 4.0 | 0.00 | 0.00 | 0.00 | 38 | 1005.5 |
| 20260504183904 | 82 | 161 | 2.0 | 4.0 | 0.00 | 0.00 | 0.00 | 38 | 1005.5 |
| 20260504183804 | 82 | 160 | 2.0 | 4.0 | 0.00 | 0.00 | 0.00 | 39 | 1005.5 |
| 20260504183705 | 82 | 161 | 2.0 | 4.0 | 0.00 | 0.00 | 0.00 | 39 | 1005.5 |
| 20260504183604 | 82 | 163 | 2.0 | 4.0 | 0.00 | 0.00 | 0.00 | 40 | 1005.5 |
| 20260504183505 | 82 | 164 | 2.0 | 4.0 | 0.00 | 0.00 | 0.00 | 41 | 1005.5 |
| 20260504183404 | 82 | 165 | 2.0 | 4.0 | 0.00 | 0.00 | 0.00 | 41 | 1005.4 |
| 20260504183205 | 81 | 179 | 2.0 | 4.0 | 0.00 | 0.00 | 0.00 | 40 | 1005.4 |
| 20260504183105 | 81 | 181 | 3.0 | 5.0 | 0.00 | 0.00 | 0.00 | 41 | 1005.4 |
| 20260504183004 | 81 | 183 | 3.0 | 7.0 | 0.00 | 0.00 | 0.00 | 39 | 1005.5 |
| 20260504182705 | 81 | 188 | 2.0 | 7.0 | 0.00 | 0.00 | 0.00 | 41 | 1005.6 |
| 20260504182605 | 81 | 185 | 2.0 | 7.0 | 0.00 | 0.00 | 0.00 | 39 | 1005.6 |
| 20260504182504 | 82 | 182 | 2.0 | 7.0 | 0.00 | 0.00 | 0.00 | 40 | 1005.5 |
| 20260504182304 | 82 | 172 | 3.0 | 7.0 | 0.00 | 0.00 | 0.00 | 38 | 1005.6 |
| 20260504182204 | 82 | 167 | 3.0 | 7.0 | 0.00 | 0.00 | 0.00 | 38 | 1005.6 |
| 20260504182105 | 82 | 167 | 2.0 | 7.0 | 0.00 | 0.00 | 0.00 | 38 | 1005.5 |
| 20260504182004 | 82 | 159 | 2.0 | 7.0 | 0.00 | 0.00 | 0.00 | 39 | 1005.5 |
| 20260504181904 | 82 | 158 | 2.0 | 6.0 | 0.00 | 0.00 | 0.00 | 39 | 1005.5 |